Time,TemperatureF,DewpointF,PressureIn,WindDirection,WindDirectionDegrees,WindSpeedMPH,WindSpeedGustMPH,Humidity,HourlyPrecipIn,Conditions,Clouds,dailyrainin,SoftwareType,DateUTC
2013-06-29 00:00:00,72.3,62.4,29.68,ENE,64,0.0,0.0,71,0.00,,---,0.00,VWS V13.01,2013-06-29 07:00:00,
2013-06-29 00:01:00,72.3,62.4,29.68,ENE,64,0.0,0.0,71,0.00,,---,0.00,VWS V13.01,2013-06-29 07:01:00,
2013-06-29 00:02:00,72.3,62.4,29.68,ENE,64,0.0,0.0,71,0.00,,---,0.00,VWS V13.01,2013-06-29 07:02:00,
2013-06-29 00:05:00,72.0,62.5,29.68,ENE,64,0.0,0.0,72,0.00,,---,0.00,VWS V13.01,2013-06-29 07:05:00,
2013-06-29 00:06:00,72.0,62.5,29.68,ENE,64,0.0,0.0,72,0.00,,---,0.00,VWS V13.01,2013-06-29 07:06:00,
2013-06-29 00:07:00,71.8,62.3,29.68,ENE,64,0.0,0.0,72,0.00,,---,0.00,VWS V13.01,2013-06-29 07:07:00,
2013-06-29 00:10:00,71.8,62.3,29.68,ENE,64,0.0,0.0,72,0.00,,---,0.00,VWS V13.01,2013-06-29 07:10:00,
2013-06-29 00:11:00,71.8,62.3,29.68,ENE,64,0.0,0.0,72,0.00,,---,0.00,VWS V13.01,2013-06-29 07:11:00,
2013-06-29 00:12:00,71.8,62.3,29.68,ENE,64,0.0,0.0,72,0.00,,---,0.00,VWS V13.01,2013-06-29 07:12:00,
2013-06-29 00:15:00,71.8,62.3,29.68,ENE,64,0.0,0.0,72,0.00,,---,0.00,VWS V13.01,2013-06-29 07:15:00,
2013-06-29 00:16:00,71.8,62.3,29.68,ENE,64,0.0,0.0,72,0.00,,---,0.00,VWS V13.01,2013-06-29 07:16:00,
2013-06-29 00:17:00,71.8,62.3,29.68,ENE,64,0.0,0.0,72,0.00,,---,0.00,VWS V13.01,2013-06-29 07:17:00,
2013-06-29 00:20:00,71.8,62.3,29.68,ENE,64,0.0,0.0,72,0.00,,---,0.00,VWS V13.01,2013-06-29 07:20:00,
2013-06-29 00:22:00,71.6,62.1,29.68,ENE,64,0.0,0.0,72,0.00,,---,0.00,VWS V13.01,2013-06-29 07:22:00,
2013-06-29 00:25:00,71.4,62.3,29.68,ENE,64,0.0,0.0,73,0.00,,---,0.00,VWS V13.01,2013-06-29 07:25:00,
2013-06-29 00:26:00,71.4,62.3,29.68,ENE,64,0.0,0.0,73,0.00,,---,0.00,VWS V13.01,2013-06-29 07:26:00,
2013-06-29 00:27:00,71.4,62.3,29.68,ENE,64,0.0,0.0,73,0.00,,---,0.00,VWS V13.01,2013-06-29 07:27:00,
2013-06-29 00:30:00,71.4,62.3,29.68,ENE,64,0.0,0.0,73,0.00,,---,0.00,VWS V13.01,2013-06-29 07:30:00,
2013-06-29 00:31:00,71.4,62.3,29.68,ENE,64,0.0,0.0,73,0.00,,---,0.00,VWS V13.01,2013-06-29 07:31:00,
2013-06-29 00:32:00,71.4,62.3,29.68,ENE,64,0.0,0.0,73,0.00,,---,0.00,VWS V13.01,2013-06-29 07:32:00,
2013-06-29 00:33:00,71.2,62.2,29.68,ENE,64,0.0,0.0,73,0.00,,---,0.00,VWS V13.01,2013-06-29 07:33:00,
2013-06-29 00:35:00,71.2,62.2,29.68,ENE,64,0.0,0.0,73,0.00,,---,0.00,VWS V13.01,2013-06-29 07:35:00,
2013-06-29 00:36:00,71.2,62.2,29.68,ENE,64,0.0,0.0,73,0.00,,---,0.00,VWS V13.01,2013-06-29 07:36:00,
2013-06-29 00:37:00,71.2,62.5,29.68,ENE,64,0.0,0.0,74,0.00,,---,0.00,VWS V13.01,2013-06-29 07:37:00,
2013-06-29 00:38:00,71.1,62.4,29.68,ENE,64,0.0,0.0,74,0.00,,---,0.00,VWS V13.01,2013-06-29 07:38:00,
2013-06-29 00:40:00,71.1,62.4,29.68,ENE,64,0.0,0.0,74,0.00,,---,0.00,VWS V13.01,2013-06-29 07:40:00,
2013-06-29 00:41:00,70.9,62.2,29.68,ENE,64,0.0,0.0,74,0.00,,---,0.00,VWS V13.01,2013-06-29 07:41:00,
2013-06-29 00:42:00,70.9,62.2,29.68,ENE,64,0.0,0.0,74,0.00,,---,0.00,VWS V13.01,2013-06-29 07:42:00,
2013-06-29 00:43:00,70.9,62.2,29.68,ENE,64,0.0,0.0,74,0.00,,---,0.00,VWS V13.01,2013-06-29 07:43:00,
2013-06-29 00:46:00,70.7,62.0,29.68,ENE,64,0.0,0.0,74,0.00,,---,0.00,VWS V13.01,2013-06-29 07:46:00,
2013-06-29 00:47:00,70.7,62.0,29.68,ENE,64,0.0,0.0,74,0.00,,---,0.00,VWS V13.01,2013-06-29 07:47:00,
2013-06-29 00:48:00,70.7,62.0,29.68,ENE,64,0.0,0.0,74,0.00,,---,0.00,VWS V13.01,2013-06-29 07:48:00,
2013-06-29 00:51:00,70.7,62.0,29.68,ENE,64,0.0,0.0,74,0.00,,---,0.00,VWS V13.01,2013-06-29 07:51:00,
2013-06-29 00:52:00,70.5,62.2,29.68,ENE,64,0.0,0.0,75,0.00,,---,0.00,VWS V13.01,2013-06-29 07:52:00,
2013-06-29 00:53:00,70.5,62.2,29.68,ENE,64,0.0,0.0,75,0.00,,---,0.00,VWS V13.01,2013-06-29 07:53:00,
2013-06-29 00:56:00,70.5,62.2,29.68,ENE,64,0.0,0.0,75,0.00,,---,0.00,VWS V13.01,2013-06-29 07:56:00,
2013-06-29 00:58:00,70.5,62.2,29.68,ENE,64,0.0,0.0,75,0.00,,---,0.00,VWS V13.01,2013-06-29 07:58:00,
2013-06-29 01:01:00,70.5,62.2,29.68,ENE,64,0.0,0.0,75,0.00,,---,0.00,VWS V13.01,2013-06-29 08:01:00,
2013-06-29 01:03:00,70.5,62.2,29.68,ENE,64,0.0,0.0,75,0.00,,---,0.00,VWS V13.01,2013-06-29 08:03:00,
2013-06-29 01:06:00,70.3,62.0,29.68,ENE,64,0.0,0.0,75,0.00,,---,0.00,VWS V13.01,2013-06-29 08:06:00,
2013-06-29 01:08:00,70.3,62.0,29.68,ENE,64,0.0,0.0,75,0.00,,---,0.00,VWS V13.01,2013-06-29 08:08:00,
2013-06-29 01:11:00,70.2,61.9,29.68,ENE,64,0.0,0.0,75,0.00,,---,0.00,VWS V13.01,2013-06-29 08:11:00,
2013-06-29 01:12:00,70.2,61.9,29.68,ENE,64,0.0,0.0,75,0.00,,---,0.00,VWS V13.01,2013-06-29 08:12:00,
2013-06-29 01:13:00,70.2,61.9,29.68,ENE,64,0.0,0.0,75,0.00,,---,0.00,VWS V13.01,2013-06-29 08:13:00,
2013-06-29 01:16:00,70.0,61.7,29.68,ENE,64,0.0,0.0,75,0.00,,---,0.00,VWS V13.01,2013-06-29 08:16:00,
2013-06-29 01:17:00,70.0,61.7,29.68,ENE,64,0.0,0.0,75,0.00,,---,0.00,VWS V13.01,2013-06-29 08:17:00,
2013-06-29 01:18:00,70.0,61.7,29.68,ENE,64,0.0,0.0,75,0.00,,---,0.00,VWS V13.01,2013-06-29 08:18:00,
2013-06-29 01:21:00,69.8,61.9,29.68,ENE,64,0.0,0.0,76,0.00,,---,0.00,VWS V13.01,2013-06-29 08:21:00,
2013-06-29 01:22:00,69.8,61.9,29.68,ENE,64,0.0,0.0,76,0.00,,---,0.00,VWS V13.01,2013-06-29 08:22:00,
2013-06-29 01:23:00,69.8,61.9,29.68,ENE,64,0.0,0.0,76,0.00,,---,0.00,VWS V13.01,2013-06-29 08:23:00,
2013-06-29 01:24:00,69.8,61.9,29.68,ENE,64,0.0,0.0,76,0.00,,---,0.00,VWS V13.01,2013-06-29 08:24:00,
2013-06-29 01:26:00,69.8,61.9,29.68,ENE,64,0.0,0.0,76,0.00,,---,0.00,VWS V13.01,2013-06-29 08:26:00,
2013-06-29 01:27:00,69.6,61.7,29.68,ENE,64,0.0,0.0,76,0.00,,---,0.00,VWS V13.01,2013-06-29 08:27:00,
2013-06-29 01:28:00,69.6,61.7,29.68,ENE,64,0.0,0.0,76,0.00,,---,0.00,VWS V13.01,2013-06-29 08:28:00,
2013-06-29 01:29:00,69.6,61.7,29.68,ENE,64,0.0,0.0,76,0.00,,---,0.00,VWS V13.01,2013-06-29 08:29:00,
2013-06-29 01:32:00,69.6,61.7,29.68,ENE,64,0.0,0.0,76,0.00,,---,0.00,VWS V13.01,2013-06-29 08:32:00,
2013-06-29 01:33:00,69.6,61.7,29.68,ENE,64,0.0,0.0,76,0.00,,---,0.00,VWS V13.01,2013-06-29 08:33:00,
2013-06-29 01:34:00,69.6,61.7,29.68,ENE,64,0.0,0.0,76,0.00,,---,0.00,VWS V13.01,2013-06-29 08:34:00,
2013-06-29 01:37:00,69.4,61.9,29.68,ENE,64,0.0,0.0,77,0.00,,---,0.00,VWS V13.01,2013-06-29 08:37:00,
2013-06-29 01:39:00,69.4,61.9,29.68,ENE,64,0.0,0.0,77,0.00,,---,0.00,VWS V13.01,2013-06-29 08:39:00,
2013-06-29 01:42:00,69.4,61.9,29.68,ENE,64,0.0,0.0,77,0.00,,---,0.00,VWS V13.01,2013-06-29 08:42:00,
2013-06-29 01:44:00,69.4,61.9,29.68,ENE,64,0.0,0.0,77,0.00,,---,0.00,VWS V13.01,2013-06-29 08:44:00,
2013-06-29 01:47:00,69.3,61.8,29.68,ENE,64,0.0,0.0,77,0.00,,---,0.00,VWS V13.01,2013-06-29 08:47:00,
2013-06-29 01:49:00,69.3,61.8,29.68,ENE,64,0.0,0.0,77,0.00,,---,0.00,VWS V13.01,2013-06-29 08:49:00,
2013-06-29 01:52:00,69.1,61.6,29.68,ENE,64,0.0,0.0,77,0.00,,---,0.00,VWS V13.01,2013-06-29 08:52:00,
2013-06-29 01:54:00,69.1,61.6,29.68,ENE,64,0.0,0.0,77,0.00,,---,0.00,VWS V13.01,2013-06-29 08:54:00,
2013-06-29 01:55:00,69.1,61.6,29.68,ENE,64,0.0,0.0,77,0.00,,---,0.00,VWS V13.01,2013-06-29 08:55:00,
2013-06-29 01:57:00,69.1,61.6,29.68,ENE,64,0.0,0.0,77,0.00,,---,0.00,VWS V13.01,2013-06-29 08:57:00,
2013-06-29 01:59:00,69.1,61.6,29.68,ENE,64,0.0,0.0,77,0.00,,---,0.00,VWS V13.01,2013-06-29 08:59:00,
2013-06-29 02:00:00,69.1,61.6,29.68,ENE,64,0.0,0.0,77,0.00,,---,0.00,VWS V13.01,2013-06-29 09:00:00,
2013-06-29 02:02:00,69.1,61.6,29.68,ENE,64,0.0,0.0,77,0.00,,---,0.00,VWS V13.01,2013-06-29 09:02:00,
2013-06-29 02:03:00,69.1,61.6,29.68,ENE,64,0.0,0.0,77,0.00,,---,0.00,VWS V13.01,2013-06-29 09:03:00,
2013-06-29 02:05:00,68.9,61.4,29.68,ENE,64,0.0,0.0,77,0.00,,---,0.00,VWS V13.01,2013-06-29 09:05:00,
2013-06-29 02:08:00,68.9,61.8,29.68,ENE,64,0.0,0.0,78,0.00,,---,0.00,VWS V13.01,2013-06-29 09:08:00,
2013-06-29 02:10:00,68.7,61.6,29.68,ENE,64,0.0,0.0,78,0.00,,---,0.00,VWS V13.01,2013-06-29 09:10:00,
2013-06-29 02:13:00,68.7,61.6,29.68,ENE,64,0.0,0.0,78,0.00,,---,0.00,VWS V13.01,2013-06-29 09:13:00,
2013-06-29 02:15:00,68.7,61.6,29.68,ENE,64,0.0,0.0,78,0.00,,---,0.00,VWS V13.01,2013-06-29 09:15:00,
2013-06-29 02:16:00,68.7,61.2,29.68,ENE,64,0.0,0.0,77,0.00,,---,0.00,VWS V13.01,2013-06-29 09:16:00,
2013-06-29 02:18:00,68.7,61.6,29.68,ENE,64,0.0,0.0,78,0.00,,---,0.00,VWS V13.01,2013-06-29 09:18:00,
2013-06-29 02:20:00,68.5,61.4,29.68,ENE,64,0.0,0.0,78,0.00,,---,0.00,VWS V13.01,2013-06-29 09:20:00,
2013-06-29 02:21:00,68.5,61.4,29.68,ENE,64,0.0,0.0,78,0.00,,---,0.00,VWS V13.01,2013-06-29 09:21:00,
2013-06-29 02:23:00,68.5,61.4,29.68,ENE,64,0.0,0.0,78,0.00,,---,0.00,VWS V13.01,2013-06-29 09:23:00,
2013-06-29 02:24:00,68.5,61.4,29.68,ENE,64,0.0,0.0,78,0.00,,---,0.00,VWS V13.01,2013-06-29 09:24:00,
2013-06-29 02:25:00,68.5,61.4,29.68,ENE,64,0.0,0.0,78,0.00,,---,0.00,VWS V13.01,2013-06-29 09:25:00,
2013-06-29 02:26:00,68.5,61.4,29.68,ENE,64,0.0,0.0,78,0.00,,---,0.00,VWS V13.01,2013-06-29 09:26:00,
2013-06-29 02:28:00,68.5,61.4,29.68,ENE,64,0.0,0.0,78,0.00,,---,0.00,VWS V13.01,2013-06-29 09:28:00,
2013-06-29 02:29:00,68.5,61.4,29.68,ENE,64,0.0,0.0,78,0.00,,---,0.00,VWS V13.01,2013-06-29 09:29:00,
2013-06-29 02:30:00,68.5,61.4,29.68,ENE,64,0.0,0.0,78,0.00,,---,0.00,VWS V13.01,2013-06-29 09:30:00,
2013-06-29 02:31:00,68.4,61.2,29.68,ENE,64,0.0,0.0,78,0.00,,---,0.00,VWS V13.01,2013-06-29 09:31:00,
2013-06-29 02:33:00,68.4,61.2,29.68,ENE,64,0.0,0.0,78,0.00,,---,0.00,VWS V13.01,2013-06-29 09:33:00,
2013-06-29 02:34:00,68.4,61.2,29.68,ENE,64,0.0,0.0,78,0.00,,---,0.00,VWS V13.01,2013-06-29 09:34:00,
2013-06-29 02:35:00,68.4,61.2,29.68,ENE,64,0.0,0.0,78,0.00,,---,0.00,VWS V13.01,2013-06-29 09:35:00,
2013-06-29 02:36:00,68.4,61.2,29.71,ENE,64,0.0,0.0,78,0.00,,---,0.00,VWS V13.01,2013-06-29 09:36:00,
2013-06-29 02:38:00,68.4,61.6,29.71,ENE,64,0.0,0.0,79,0.00,,---,0.00,VWS V13.01,2013-06-29 09:38:00,
2013-06-29 02:39:00,68.4,61.6,29.71,ENE,64,0.0,0.0,79,0.00,,---,0.00,VWS V13.01,2013-06-29 09:39:00,
2013-06-29 02:40:00,68.4,61.6,29.71,ENE,64,0.0,0.0,79,0.00,,---,0.00,VWS V13.01,2013-06-29 09:40:00,
2013-06-29 02:41:00,68.4,61.6,29.71,ENE,64,0.0,0.0,79,0.00,,---,0.00,VWS V13.01,2013-06-29 09:41:00,
2013-06-29 02:43:00,68.4,61.6,29.71,ENE,64,0.0,0.0,79,0.00,,---,0.00,VWS V13.01,2013-06-29 09:43:00,
2013-06-29 02:44:00,68.4,61.6,29.71,ENE,64,0.0,0.0,79,0.00,,---,0.00,VWS V13.01,2013-06-29 09:44:00,
2013-06-29 02:45:00,68.4,61.6,29.71,ENE,64,0.0,0.0,79,0.00,,---,0.00,VWS V13.01,2013-06-29 09:45:00,
2013-06-29 02:46:00,68.4,61.6,29.71,ENE,64,0.0,0.0,79,0.00,,---,0.00,VWS V13.01,2013-06-29 09:46:00,
2013-06-29 02:48:00,68.4,61.6,29.71,ENE,64,0.0,0.0,79,0.00,,---,0.00,VWS V13.01,2013-06-29 09:48:00,
2013-06-29 02:49:00,68.4,61.6,29.71,ENE,64,0.0,0.0,79,0.00,,---,0.00,VWS V13.01,2013-06-29 09:49:00,
2013-06-29 02:50:00,68.4,61.6,29.71,ENE,64,0.0,0.0,79,0.00,,---,0.00,VWS V13.01,2013-06-29 09:50:00,
2013-06-29 02:51:00,68.4,61.6,29.71,ENE,64,0.0,0.0,79,0.00,,---,0.00,VWS V13.01,2013-06-29 09:51:00,
2013-06-29 02:54:00,68.4,61.6,29.71,ENE,64,0.0,0.0,79,0.00,,---,0.00,VWS V13.01,2013-06-29 09:54:00,
2013-06-29 02:55:00,68.4,61.6,29.71,ENE,64,0.0,0.0,79,0.00,,---,0.00,VWS V13.01,2013-06-29 09:55:00,
2013-06-29 02:56:00,68.4,61.6,29.71,ENE,64,0.0,0.0,79,0.00,,---,0.00,VWS V13.01,2013-06-29 09:56:00,
2013-06-29 02:57:00,68.4,61.6,29.71,ENE,64,0.0,0.0,79,0.00,,---,0.00,VWS V13.01,2013-06-29 09:57:00,
2013-06-29 02:59:00,68.4,61.6,29.71,ENE,64,0.0,0.0,79,0.00,,---,0.00,VWS V13.01,2013-06-29 09:59:00,
2013-06-29 03:00:00,68.4,61.6,29.71,ENE,64,0.0,0.0,79,0.00,,---,0.00,VWS V13.01,2013-06-29 10:00:00,
2013-06-29 03:01:00,68.4,61.6,29.71,ENE,64,0.0,0.0,79,0.00,,---,0.00,VWS V13.01,2013-06-29 10:01:00,
2013-06-29 03:02:00,68.4,61.6,29.71,ENE,64,0.0,0.0,79,0.00,,---,0.00,VWS V13.01,2013-06-29 10:02:00,
2013-06-29 03:04:00,68.4,61.6,29.71,ENE,64,0.0,0.0,79,0.00,,---,0.00,VWS V13.01,2013-06-29 10:04:00,
2013-06-29 03:05:00,68.4,61.6,29.71,ENE,64,0.0,0.0,79,0.00,,---,0.00,VWS V13.01,2013-06-29 10:05:00,
2013-06-29 03:06:00,68.4,61.6,29.71,ENE,64,0.0,0.0,79,0.00,,---,0.00,VWS V13.01,2013-06-29 10:06:00,
2013-06-29 03:07:00,68.4,61.6,29.71,ENE,64,0.0,0.0,79,0.00,,---,0.00,VWS V13.01,2013-06-29 10:07:00,
2013-06-29 03:09:00,68.4,61.6,29.71,ENE,64,0.0,0.0,79,0.00,,---,0.00,VWS V13.01,2013-06-29 10:09:00,
2013-06-29 03:10:00,68.4,61.6,29.71,ENE,64,0.0,0.0,79,0.00,,---,0.00,VWS V13.01,2013-06-29 10:10:00,
2013-06-29 03:11:00,68.4,61.6,29.71,ENE,64,0.0,0.0,79,0.00,,---,0.00,VWS V13.01,2013-06-29 10:11:00,
2013-06-29 03:12:00,68.4,61.6,29.71,ENE,64,0.0,0.0,79,0.00,,---,0.00,VWS V13.01,2013-06-29 10:12:00,
2013-06-29 03:14:00,68.4,61.6,29.71,ENE,64,0.0,0.0,79,0.00,,---,0.00,VWS V13.01,2013-06-29 10:14:00,
2013-06-29 03:15:00,68.4,61.6,29.71,ENE,64,0.0,0.0,79,0.00,,---,0.00,VWS V13.01,2013-06-29 10:15:00,
2013-06-29 03:16:00,68.4,61.6,29.71,ENE,64,0.0,0.0,79,0.00,,---,0.00,VWS V13.01,2013-06-29 10:16:00,
2013-06-29 03:17:00,68.4,61.6,29.71,ENE,64,0.0,0.0,79,0.00,,---,0.00,VWS V13.01,2013-06-29 10:17:00,
2013-06-29 03:19:00,68.4,61.6,29.71,ENE,64,0.0,0.0,79,0.00,,---,0.00,VWS V13.01,2013-06-29 10:19:00,
2013-06-29 03:20:00,68.4,61.6,29.71,ENE,64,0.0,0.0,79,0.00,,---,0.00,VWS V13.01,2013-06-29 10:20:00,
2013-06-29 03:21:00,68.4,61.6,29.71,ENE,64,0.0,0.0,79,0.00,,---,0.00,VWS V13.01,2013-06-29 10:21:00,
2013-06-29 03:22:00,68.4,61.6,29.71,ENE,64,0.0,0.0,79,0.00,,---,0.00,VWS V13.01,2013-06-29 10:22:00,
2013-06-29 03:24:00,68.2,61.4,29.71,ENE,64,0.0,0.0,79,0.00,,---,0.00,VWS V13.01,2013-06-29 10:24:00,
2013-06-29 03:26:00,68.2,61.4,29.71,ENE,64,0.0,0.0,79,0.00,,---,0.00,VWS V13.01,2013-06-29 10:26:00,
2013-06-29 03:27:00,68.0,61.2,29.71,ENE,64,0.0,0.0,79,0.00,,---,0.00,VWS V13.01,2013-06-29 10:27:00,
2013-06-29 03:30:00,67.8,61.1,29.71,ENE,64,0.0,0.0,79,0.00,,---,0.00,VWS V13.01,2013-06-29 10:30:00,
2013-06-29 03:31:00,68.0,61.2,29.71,ENE,64,0.0,0.0,79,0.00,,---,0.00,VWS V13.01,2013-06-29 10:31:00,
2013-06-29 03:32:00,68.0,61.2,29.71,ENE,64,0.0,0.0,79,0.00,,---,0.00,VWS V13.01,2013-06-29 10:32:00,
2013-06-29 03:35:00,68.0,61.2,29.71,ENE,64,0.0,0.0,79,0.00,,---,0.00,VWS V13.01,2013-06-29 10:35:00,
2013-06-29 03:36:00,68.0,61.6,29.71,ENE,64,0.0,0.0,80,0.00,,---,0.00,VWS V13.01,2013-06-29 10:36:00,
2013-06-29 03:37:00,68.0,61.6,29.71,ENE,64,0.0,0.0,80,0.00,,---,0.00,VWS V13.01,2013-06-29 10:37:00,
2013-06-29 03:38:00,68.0,61.6,29.71,ENE,64,0.0,0.0,80,0.00,,---,0.00,VWS V13.01,2013-06-29 10:38:00,
2013-06-29 03:40:00,68.0,61.6,29.71,ENE,64,0.0,0.0,80,0.00,,---,0.00,VWS V13.01,2013-06-29 10:40:00,
2013-06-29 03:41:00,68.0,61.2,29.71,ENE,64,0.0,0.0,79,0.00,,---,0.00,VWS V13.01,2013-06-29 10:41:00,
2013-06-29 03:42:00,68.0,61.2,29.71,ENE,64,0.0,0.0,79,0.00,,---,0.00,VWS V13.01,2013-06-29 10:42:00,
2013-06-29 03:43:00,68.0,61.2,29.71,ENE,64,0.0,0.0,79,0.00,,---,0.00,VWS V13.01,2013-06-29 10:43:00,
2013-06-29 03:45:00,68.0,61.2,29.71,ENE,64,0.0,0.0,79,0.00,,---,0.00,VWS V13.01,2013-06-29 10:45:00,
2013-06-29 03:46:00,68.0,61.2,29.71,ENE,64,0.0,0.0,79,0.00,,---,0.00,VWS V13.01,2013-06-29 10:46:00,
2013-06-29 03:47:00,68.0,61.2,29.71,ENE,64,0.0,0.0,79,0.00,,---,0.00,VWS V13.01,2013-06-29 10:47:00,
2013-06-29 03:48:00,68.0,61.2,29.71,ENE,64,0.0,0.0,79,0.00,,---,0.00,VWS V13.01,2013-06-29 10:48:00,
2013-06-29 03:50:00,68.0,61.2,29.71,ENE,64,0.0,0.0,79,0.00,,---,0.00,VWS V13.01,2013-06-29 10:50:00,
2013-06-29 03:51:00,68.0,61.2,29.71,ENE,64,0.0,0.0,79,0.00,,---,0.00,VWS V13.01,2013-06-29 10:51:00,
2013-06-29 03:53:00,68.0,61.2,29.71,ENE,64,0.0,0.0,79,0.00,,---,0.00,VWS V13.01,2013-06-29 10:53:00,
2013-06-29 03:55:00,68.0,61.2,29.71,ENE,64,0.0,0.0,79,0.00,,---,0.00,VWS V13.01,2013-06-29 10:55:00,
2013-06-29 03:57:00,68.0,61.2,29.71,ENE,64,0.0,0.0,79,0.00,,---,0.00,VWS V13.01,2013-06-29 10:57:00,
2013-06-29 03:58:00,68.0,61.2,29.71,ENE,64,0.0,0.0,79,0.00,,---,0.00,VWS V13.01,2013-06-29 10:58:00,
2013-06-29 04:01:00,67.8,61.4,29.71,ENE,64,0.0,0.0,80,0.00,,---,0.00,VWS V13.01,2013-06-29 11:01:00,
2013-06-29 04:02:00,67.8,61.4,29.71,ENE,64,0.0,0.0,80,0.00,,---,0.00,VWS V13.01,2013-06-29 11:02:00,
2013-06-29 04:03:00,67.8,61.4,29.71,ENE,64,0.0,0.0,80,0.00,,---,0.00,VWS V13.01,2013-06-29 11:03:00,
2013-06-29 04:06:00,67.8,61.4,29.71,ENE,64,0.0,0.0,80,0.00,,---,0.00,VWS V13.01,2013-06-29 11:06:00,
2013-06-29 04:07:00,67.8,61.4,29.71,ENE,64,0.0,0.0,80,0.00,,---,0.00,VWS V13.01,2013-06-29 11:07:00,
2013-06-29 04:08:00,67.8,61.4,29.71,ENE,64,0.0,0.0,80,0.00,,---,0.00,VWS V13.01,2013-06-29 11:08:00,
2013-06-29 04:11:00,67.8,61.4,29.71,ENE,64,0.0,0.0,80,0.00,,---,0.00,VWS V13.01,2013-06-29 11:11:00,
2013-06-29 04:12:00,67.8,61.4,29.71,ENE,64,0.0,0.0,80,0.00,,---,0.00,VWS V13.01,2013-06-29 11:12:00,
2013-06-29 04:13:00,67.8,61.4,29.71,ENE,64,0.0,0.0,80,0.00,,---,0.00,VWS V13.01,2013-06-29 11:13:00,
2013-06-29 04:14:00,67.8,61.4,29.71,ENE,64,0.0,0.0,80,0.00,,---,0.00,VWS V13.01,2013-06-29 11:14:00,
2013-06-29 04:16:00,67.6,61.3,29.71,ENE,64,0.0,0.0,80,0.00,,---,0.00,VWS V13.01,2013-06-29 11:16:00,
2013-06-29 04:17:00,67.6,61.3,29.71,ENE,64,0.0,0.0,80,0.00,,---,0.00,VWS V13.01,2013-06-29 11:17:00,
2013-06-29 04:18:00,67.6,61.3,29.71,ENE,64,0.0,0.0,80,0.00,,---,0.00,VWS V13.01,2013-06-29 11:18:00,
2013-06-29 04:19:00,67.6,61.3,29.71,ENE,64,0.0,0.0,80,0.00,,---,0.00,VWS V13.01,2013-06-29 11:19:00,
2013-06-29 04:21:00,67.6,61.3,29.71,ENE,64,0.0,0.0,80,0.00,,---,0.00,VWS V13.01,2013-06-29 11:21:00,
2013-06-29 04:22:00,67.6,61.3,29.71,ENE,64,0.0,0.0,80,0.00,,---,0.00,VWS V13.01,2013-06-29 11:22:00,
2013-06-29 04:23:00,67.5,61.4,29.71,ENE,64,0.0,0.0,81,0.00,,---,0.00,VWS V13.01,2013-06-29 11:23:00,
2013-06-29 04:24:00,67.5,61.1,29.71,ENE,64,0.0,0.0,80,0.00,,---,0.00,VWS V13.01,2013-06-29 11:24:00,
2013-06-29 04:26:00,67.5,61.1,29.71,ENE,64,0.0,0.0,80,0.00,,---,0.00,VWS V13.01,2013-06-29 11:26:00,
2013-06-29 04:27:00,67.5,61.4,29.71,ENE,64,0.0,0.0,81,0.00,,---,0.00,VWS V13.01,2013-06-29 11:27:00,
2013-06-29 04:28:00,67.5,61.4,29.71,ENE,64,0.0,0.0,81,0.00,,---,0.00,VWS V13.01,2013-06-29 11:28:00,
2013-06-29 04:29:00,67.5,61.4,29.71,ENE,64,0.0,0.0,81,0.00,,---,0.00,VWS V13.01,2013-06-29 11:29:00,
2013-06-29 04:31:00,67.3,61.3,29.71,ENE,64,0.0,0.0,81,0.00,,---,0.00,VWS V13.01,2013-06-29 11:31:00,
2013-06-29 04:32:00,67.3,61.3,29.68,ENE,64,0.0,0.0,81,0.00,,---,0.00,VWS V13.01,2013-06-29 11:32:00,
2013-06-29 04:34:00,67.3,61.3,29.68,ENE,64,0.0,0.0,81,0.00,,---,0.00,VWS V13.01,2013-06-29 11:34:00,
2013-06-29 04:36:00,67.5,61.4,29.68,ENE,64,0.0,0.0,81,0.00,,---,0.00,VWS V13.01,2013-06-29 11:36:00,
2013-06-29 04:37:00,67.5,61.4,29.68,ENE,64,0.0,0.0,81,0.00,,---,0.00,VWS V13.01,2013-06-29 11:37:00,
2013-06-29 04:39:00,67.3,61.3,29.68,ENE,64,0.0,0.0,81,0.00,,---,0.00,VWS V13.01,2013-06-29 11:39:00,
2013-06-29 04:41:00,67.5,61.4,29.68,ENE,64,0.0,0.0,81,0.00,,---,0.00,VWS V13.01,2013-06-29 11:41:00,
2013-06-29 04:42:00,67.3,61.3,29.68,ENE,64,0.0,0.0,81,0.00,,---,0.00,VWS V13.01,2013-06-29 11:42:00,
2013-06-29 04:43:00,67.3,61.3,29.68,ENE,64,0.0,0.0,81,0.00,,---,0.00,VWS V13.01,2013-06-29 11:43:00,
2013-06-29 04:44:00,67.3,61.3,29.68,ENE,64,0.0,0.0,81,0.00,,---,0.00,VWS V13.01,2013-06-29 11:44:00,
2013-06-29 04:46:00,67.3,61.3,29.68,ENE,64,0.0,0.0,81,0.00,,---,0.00,VWS V13.01,2013-06-29 11:46:00,
2013-06-29 04:48:00,67.3,61.3,29.68,ENE,64,0.0,0.0,81,0.00,,---,0.00,VWS V13.01,2013-06-29 11:48:00,
2013-06-29 04:49:00,67.3,61.3,29.68,SE,128,0.0,0.0,81,0.00,,---,0.00,VWS V13.01,2013-06-29 11:49:00,
2013-06-29 04:50:00,67.3,61.3,29.68,SE,128,0.0,0.0,81,0.00,,---,0.00,VWS V13.01,2013-06-29 11:50:00,
2013-06-29 04:51:00,67.3,61.3,29.68,SE,143,0.0,0.0,81,0.00,,---,0.00,VWS V13.01,2013-06-29 11:51:00,
2013-06-29 04:53:00,67.1,61.4,29.68,SE,142,0.0,0.0,82,0.00,,---,0.00,VWS V13.01,2013-06-29 11:53:00,
2013-06-29 04:55:00,67.1,61.4,29.68,SE,142,0.0,0.0,82,0.00,,---,0.00,VWS V13.01,2013-06-29 11:55:00,
2013-06-29 04:56:00,67.1,61.4,29.68,SE,142,0.0,0.0,82,0.00,,---,0.00,VWS V13.01,2013-06-29 11:56:00,
2013-06-29 04:58:00,67.1,61.4,29.68,SE,142,0.0,0.0,82,0.00,,---,0.00,VWS V13.01,2013-06-29 11:58:00,
2013-06-29 05:00:00,67.1,61.4,29.68,SE,142,0.0,0.0,82,0.00,,---,0.00,VWS V13.01,2013-06-29 12:00:00,
2013-06-29 05:02:00,66.7,61.1,29.68,SE,142,0.0,0.0,82,0.00,,---,0.00,VWS V13.01,2013-06-29 12:02:00,
2013-06-29 05:03:00,66.7,61.4,29.68,SE,142,0.0,0.0,83,0.00,,---,0.00,VWS V13.01,2013-06-29 12:03:00,
2013-06-29 05:05:00,66.7,61.4,29.68,SE,142,0.0,0.0,83,0.00,,---,0.00,VWS V13.01,2013-06-29 12:05:00,
2013-06-29 05:06:00,66.7,61.4,29.68,SE,142,0.0,0.0,83,0.00,,---,0.00,VWS V13.01,2013-06-29 12:06:00,
2013-06-29 05:07:00,66.7,61.4,29.68,SE,142,0.0,0.0,83,0.00,,---,0.00,VWS V13.01,2013-06-29 12:07:00,
2013-06-29 05:08:00,66.6,61.2,29.68,SE,142,0.0,0.0,83,0.00,,---,0.00,VWS V13.01,2013-06-29 12:08:00,
2013-06-29 05:10:00,66.4,61.4,29.68,SW,216,0.0,0.0,84,0.00,,---,0.00,VWS V13.01,2013-06-29 12:10:00,
2013-06-29 05:11:00,66.2,61.2,29.68,SW,216,0.0,0.0,84,0.00,,---,0.00,VWS V13.01,2013-06-29 12:11:00,
2013-06-29 05:12:00,66.2,61.2,29.68,SW,216,0.0,0.0,84,0.00,,---,0.00,VWS V13.01,2013-06-29 12:12:00,
2013-06-29 05:13:00,66.0,61.4,29.68,SW,216,0.0,0.0,85,0.00,,---,0.00,VWS V13.01,2013-06-29 12:13:00,
2013-06-29 05:15:00,66.0,61.4,29.68,SW,216,0.0,0.0,85,0.00,,---,0.00,VWS V13.01,2013-06-29 12:15:00,
2013-06-29 05:16:00,66.0,61.4,29.68,SW,216,0.0,0.0,85,0.00,,---,0.00,VWS V13.01,2013-06-29 12:16:00,
2013-06-29 05:17:00,66.0,61.4,29.68,SW,216,0.0,0.0,85,0.00,,---,0.00,VWS V13.01,2013-06-29 12:17:00,
2013-06-29 05:18:00,66.0,61.4,29.68,SW,216,0.0,0.0,85,0.00,,---,0.00,VWS V13.01,2013-06-29 12:18:00,
2013-06-29 05:21:00,66.2,61.6,29.68,SW,216,0.0,0.0,85,0.00,,---,0.00,VWS V13.01,2013-06-29 12:21:00,
2013-06-29 05:22:00,66.2,61.6,29.68,SW,216,0.0,0.0,85,0.00,,---,0.00,VWS V13.01,2013-06-29 12:22:00,
2013-06-29 05:23:00,66.2,61.6,29.68,SW,216,0.0,0.0,85,0.00,,---,0.00,VWS V13.01,2013-06-29 12:23:00,
2013-06-29 05:24:00,66.4,61.7,29.68,SW,216,0.0,0.0,85,0.00,,---,0.00,VWS V13.01,2013-06-29 12:24:00,
2013-06-29 05:26:00,66.4,61.7,29.68,SW,216,0.0,0.0,85,0.00,,---,0.00,VWS V13.01,2013-06-29 12:26:00,
2013-06-29 05:27:00,66.4,61.7,29.68,SW,216,0.0,0.0,85,0.00,,---,0.00,VWS V13.01,2013-06-29 12:27:00,
2013-06-29 05:28:00,66.4,61.4,29.68,SW,216,0.0,0.0,84,0.00,,---,0.00,VWS V13.01,2013-06-29 12:28:00,
2013-06-29 05:29:00,66.6,61.6,29.68,SW,216,0.0,0.0,84,0.00,,---,0.00,VWS V13.01,2013-06-29 12:29:00,
2013-06-29 05:31:00,66.6,61.6,29.68,SW,216,0.0,0.0,84,0.00,,---,0.00,VWS V13.01,2013-06-29 12:31:00,
2013-06-29 05:32:00,66.6,61.6,29.68,SW,216,0.0,0.0,84,0.00,,---,0.00,VWS V13.01,2013-06-29 12:32:00,
2013-06-29 05:33:00,66.4,61.4,29.68,SW,216,0.0,0.0,84,0.00,,---,0.00,VWS V13.01,2013-06-29 12:33:00,
2013-06-29 05:34:00,66.4,61.4,29.68,SW,216,0.0,0.0,84,0.00,,---,0.00,VWS V13.01,2013-06-29 12:34:00,
2013-06-29 05:36:00,66.4,61.4,29.68,SW,216,0.0,0.0,84,0.00,,---,0.00,VWS V13.01,2013-06-29 12:36:00,
2013-06-29 05:37:00,66.4,61.4,29.68,SW,216,0.0,0.0,84,0.00,,---,0.00,VWS V13.01,2013-06-29 12:37:00,
2013-06-29 05:38:00,66.4,61.4,29.68,SW,216,0.0,0.0,84,0.00,,---,0.00,VWS V13.01,2013-06-29 12:38:00,
2013-06-29 05:39:00,66.2,61.2,29.68,SW,216,0.0,0.0,84,0.00,,---,0.00,VWS V13.01,2013-06-29 12:39:00,
2013-06-29 05:41:00,66.0,61.4,29.68,SW,216,0.0,0.0,85,0.00,,---,0.00,VWS V13.01,2013-06-29 12:41:00,
2013-06-29 05:42:00,66.0,61.4,29.68,SW,216,0.0,0.0,85,0.00,,---,0.00,VWS V13.01,2013-06-29 12:42:00,
2013-06-29 05:44:00,65.8,61.5,29.68,SW,216,0.0,0.0,86,0.00,,---,0.00,VWS V13.01,2013-06-29 12:44:00,
2013-06-29 05:46:00,65.8,61.5,29.68,SW,216,0.0,0.0,86,0.00,,---,0.00,VWS V13.01,2013-06-29 12:46:00,
2013-06-29 05:47:00,65.8,61.5,29.68,SW,216,0.0,0.0,86,0.00,,---,0.00,VWS V13.01,2013-06-29 12:47:00,
2013-06-29 05:49:00,66.0,61.4,29.68,SW,216,0.0,0.0,85,0.00,,---,0.00,VWS V13.01,2013-06-29 12:49:00,
2013-06-29 05:51:00,66.0,61.4,29.68,SW,216,0.0,0.0,85,0.00,,---,0.00,VWS V13.01,2013-06-29 12:51:00,
2013-06-29 05:52:00,66.0,61.4,29.68,SW,216,0.0,0.0,85,0.00,,---,0.00,VWS V13.01,2013-06-29 12:52:00,
2013-06-29 05:54:00,66.0,61.7,29.68,SW,216,0.0,0.0,86,0.00,,---,0.00,VWS V13.01,2013-06-29 12:54:00,
2013-06-29 05:56:00,65.8,61.5,29.68,SW,216,0.0,0.0,86,0.00,,---,0.00,VWS V13.01,2013-06-29 12:56:00,
2013-06-29 05:57:00,65.8,61.5,29.68,SW,216,0.0,0.0,86,0.00,,---,0.00,VWS V13.01,2013-06-29 12:57:00,
2013-06-29 05:59:00,66.0,61.7,29.68,SW,216,0.0,0.0,86,0.00,,---,0.00,VWS V13.01,2013-06-29 12:59:00,
2013-06-29 06:02:00,66.0,61.7,29.68,South,191,0.0,0.0,86,0.00,,---,0.00,VWS V13.01,2013-06-29 13:02:00,
2013-06-29 06:03:00,66.2,61.6,29.68,South,191,0.0,0.0,85,0.00,,---,0.00,VWS V13.01,2013-06-29 13:03:00,
2013-06-29 06:04:00,66.2,61.6,29.68,South,191,0.0,0.0,85,0.00,,---,0.00,VWS V13.01,2013-06-29 13:04:00,
2013-06-29 06:07:00,66.0,61.7,29.68,South,191,0.0,0.0,86,0.00,,---,0.00,VWS V13.01,2013-06-29 13:07:00,
2013-06-29 06:08:00,66.0,61.7,29.68,South,191,0.0,0.0,86,0.00,,---,0.00,VWS V13.01,2013-06-29 13:08:00,
2013-06-29 06:09:00,66.0,61.7,29.68,South,191,0.0,0.0,86,0.00,,---,0.00,VWS V13.01,2013-06-29 13:09:00,
2013-06-29 06:10:00,66.2,61.9,29.68,South,191,0.0,0.0,86,0.00,,---,0.00,VWS V13.01,2013-06-29 13:10:00,
2013-06-29 06:12:00,66.2,61.9,29.68,South,191,0.0,0.0,86,0.00,,---,0.00,VWS V13.01,2013-06-29 13:12:00,
2013-06-29 06:13:00,66.2,61.9,29.68,South,191,0.0,0.0,86,0.00,,---,0.00,VWS V13.01,2013-06-29 13:13:00,
2013-06-29 06:14:00,66.2,61.9,29.68,South,191,0.0,0.0,86,0.00,,---,0.00,VWS V13.01,2013-06-29 13:14:00,
2013-06-29 06:15:00,66.2,61.9,29.68,South,191,0.0,0.0,86,0.00,,---,0.00,VWS V13.01,2013-06-29 13:15:00,
2013-06-29 06:17:00,66.0,62.0,29.68,West,267,0.0,0.0,87,0.00,,---,0.00,VWS V13.01,2013-06-29 13:17:00,
2013-06-29 06:18:00,66.0,62.0,29.68,West,267,0.0,0.0,87,0.00,,---,0.00,VWS V13.01,2013-06-29 13:18:00,
2013-06-29 06:19:00,65.8,61.9,29.68,West,267,0.0,0.0,87,0.00,,---,0.00,VWS V13.01,2013-06-29 13:19:00,
2013-06-29 06:20:00,65.8,61.9,29.68,West,267,0.0,0.0,87,0.00,,---,0.00,VWS V13.01,2013-06-29 13:20:00,
2013-06-29 06:22:00,65.8,61.9,29.68,West,267,0.0,0.0,87,0.00,,---,0.00,VWS V13.01,2013-06-29 13:22:00,
2013-06-29 06:23:00,65.8,61.9,29.68,West,267,0.0,0.0,87,0.00,,---,0.00,VWS V13.01,2013-06-29 13:23:00,
2013-06-29 06:24:00,66.0,62.0,29.68,West,267,0.0,0.0,87,0.00,,---,0.00,VWS V13.01,2013-06-29 13:24:00,
2013-06-29 06:25:00,66.0,62.0,29.68,West,267,0.0,0.0,87,0.00,,---,0.00,VWS V13.01,2013-06-29 13:25:00,
2013-06-29 06:27:00,66.2,62.2,29.68,West,267,0.0,0.0,87,0.00,,---,0.00,VWS V13.01,2013-06-29 13:27:00,
2013-06-29 06:28:00,66.2,62.2,29.68,West,267,0.0,0.0,87,0.00,,---,0.00,VWS V13.01,2013-06-29 13:28:00,
2013-06-29 06:29:00,66.0,62.0,29.68,West,267,0.0,0.0,87,0.00,,---,0.00,VWS V13.01,2013-06-29 13:29:00,
2013-06-29 06:30:00,66.0,62.0,29.68,West,267,0.0,0.0,87,0.00,,---,0.00,VWS V13.01,2013-06-29 13:30:00,
2013-06-29 06:32:00,66.2,62.2,29.68,West,267,0.0,0.0,87,0.00,,---,0.00,VWS V13.01,2013-06-29 13:32:00,
2013-06-29 06:33:00,66.2,62.2,29.68,West,267,0.0,0.0,87,0.00,,---,0.00,VWS V13.01,2013-06-29 13:33:00,
2013-06-29 06:34:00,66.2,62.2,29.68,West,266,0.0,0.0,87,0.00,,---,0.00,VWS V13.01,2013-06-29 13:34:00,
2013-06-29 06:35:00,66.2,62.2,29.68,West,266,0.0,0.0,87,0.00,,---,0.00,VWS V13.01,2013-06-29 13:35:00,
2013-06-29 06:37:00,66.2,62.2,29.68,NNE,20,0.0,2.7,87,0.00,,---,0.00,VWS V13.01,2013-06-29 13:37:00,
2013-06-29 06:38:00,66.2,62.2,29.68,NNE,20,0.0,0.0,87,0.00,,---,0.00,VWS V13.01,2013-06-29 13:38:00,
2013-06-29 06:40:00,66.0,62.4,29.68,NNE,17,0.0,0.0,88,0.00,,---,0.00,VWS V13.01,2013-06-29 13:40:00,
2013-06-29 06:41:00,66.2,62.2,29.68,NNE,17,0.0,0.0,87,0.00,,---,0.00,VWS V13.01,2013-06-29 13:41:00,
2013-06-29 06:43:00,66.2,62.2,29.68,NNE,17,0.0,0.0,87,0.00,,---,0.00,VWS V13.01,2013-06-29 13:43:00,
2013-06-29 06:45:00,66.2,62.2,29.68,SW,233,3.1,3.1,87,0.00,,---,0.00,VWS V13.01,2013-06-29 13:45:00,
2013-06-29 06:46:00,66.2,62.2,29.68,SW,233,3.1,3.1,87,0.00,,---,0.00,VWS V13.01,2013-06-29 13:46:00,
2013-06-29 06:48:00,66.2,62.2,29.68,WSW,240,0.0,2.2,87,0.00,,---,0.00,VWS V13.01,2013-06-29 13:48:00,
2013-06-29 06:50:00,66.2,62.2,29.68,WSW,240,0.0,0.0,87,0.00,,---,0.00,VWS V13.01,2013-06-29 13:50:00,
2013-06-29 06:51:00,66.2,62.2,29.68,WSW,240,0.0,0.0,87,0.00,,---,0.00,VWS V13.01,2013-06-29 13:51:00,
2013-06-29 06:53:00,66.2,62.2,29.68,WSW,240,0.0,0.0,87,0.00,,---,0.00,VWS V13.01,2013-06-29 13:53:00,
2013-06-29 06:55:00,66.2,62.2,29.68,WSW,240,0.0,0.0,87,0.00,,---,0.00,VWS V13.01,2013-06-29 13:55:00,
2013-06-29 06:56:00,66.2,62.2,29.68,WSW,240,0.0,0.0,87,0.00,,---,0.00,VWS V13.01,2013-06-29 13:56:00,
2013-06-29 06:58:00,66.2,62.2,29.68,WSW,240,0.0,0.0,87,0.00,,---,0.00,VWS V13.01,2013-06-29 13:58:00,
2013-06-29 07:00:00,66.2,62.2,29.68,WSW,240,0.0,0.0,87,0.00,,---,0.00,VWS V13.01,2013-06-29 14:00:00,
2013-06-29 07:01:00,66.2,62.2,29.68,WSW,240,0.0,0.0,87,0.00,,---,0.00,VWS V13.01,2013-06-29 14:01:00,
2013-06-29 07:03:00,66.4,62.4,29.68,WSW,240,0.0,0.0,87,0.00,,---,0.00,VWS V13.01,2013-06-29 14:03:00,
2013-06-29 07:06:00,66.4,62.4,29.68,WSW,240,0.0,0.0,87,0.00,,---,0.00,VWS V13.01,2013-06-29 14:06:00,
2013-06-29 07:08:00,66.4,62.7,29.68,WSW,240,0.0,0.0,88,0.00,,---,0.00,VWS V13.01,2013-06-29 14:08:00,
2013-06-29 07:09:00,66.4,62.7,29.68,WSW,240,0.0,0.0,88,0.00,,---,0.00,VWS V13.01,2013-06-29 14:09:00,
2013-06-29 07:11:00,66.6,62.9,29.68,WSW,240,0.0,0.0,88,0.00,,---,0.00,VWS V13.01,2013-06-29 14:11:00,
2013-06-29 07:13:00,66.7,63.1,29.68,WSW,240,0.0,0.0,88,0.00,,---,0.00,VWS V13.01,2013-06-29 14:13:00,
2013-06-29 07:14:00,66.7,63.1,29.68,WSW,240,0.0,0.0,88,0.00,,---,0.00,VWS V13.01,2013-06-29 14:14:00,
2013-06-29 07:16:00,66.7,63.1,29.68,WSW,240,0.0,0.0,88,0.00,,---,0.00,VWS V13.01,2013-06-29 14:16:00,
2013-06-29 07:19:00,66.7,63.1,29.68,WSW,240,0.0,0.0,88,0.00,,---,0.00,VWS V13.01,2013-06-29 14:19:00,
2013-06-29 07:21:00,66.7,63.1,29.68,SSW,208,0.0,0.0,88,0.00,,---,0.00,VWS V13.01,2013-06-29 14:21:00,
2013-06-29 07:24:00,66.9,63.3,29.68,ESE,103,0.0,0.0,88,0.00,,---,0.00,VWS V13.01,2013-06-29 14:24:00,
2013-06-29 07:26:00,67.1,63.4,29.68,ESE,103,0.0,0.0,88,0.00,,---,0.00,VWS V13.01,2013-06-29 14:26:00,
2013-06-29 07:29:00,67.3,63.3,29.68,ESE,103,0.0,0.0,87,0.00,,---,0.00,VWS V13.01,2013-06-29 14:29:00,
2013-06-29 07:31:00,67.3,63.3,29.68,ESE,103,0.0,0.0,87,0.00,,---,0.00,VWS V13.01,2013-06-29 14:31:00,
2013-06-29 07:34:00,67.5,63.5,29.68,East,95,0.0,0.0,87,0.00,,---,0.00,VWS V13.01,2013-06-29 14:34:00,
2013-06-29 07:36:00,67.5,63.5,29.68,East,95,0.0,0.0,87,0.00,,---,0.00,VWS V13.01,2013-06-29 14:36:00,
2013-06-29 07:39:00,67.5,63.5,29.68,East,95,0.0,0.0,87,0.00,,---,0.00,VWS V13.01,2013-06-29 14:39:00,
2013-06-29 07:40:00,67.5,63.5,29.68,East,95,0.0,0.0,87,0.00,,---,0.00,VWS V13.01,2013-06-29 14:40:00,
2013-06-29 07:41:00,67.5,63.1,29.68,East,95,0.0,0.0,86,0.00,,---,0.00,VWS V13.01,2013-06-29 14:41:00,
2013-06-29 07:44:00,67.6,63.3,29.68,East,95,0.0,0.0,86,0.00,,---,0.00,VWS V13.01,2013-06-29 14:44:00,
2013-06-29 07:45:00,67.8,63.5,29.68,East,95,0.0,0.0,86,0.00,,---,0.00,VWS V13.01,2013-06-29 14:45:00,
2013-06-29 07:46:00,67.8,63.5,29.68,East,95,0.0,0.0,86,0.00,,---,0.00,VWS V13.01,2013-06-29 14:46:00,
2013-06-29 07:49:00,67.8,63.5,29.68,ESE,122,0.0,0.0,86,0.00,,---,0.00,VWS V13.01,2013-06-29 14:49:00,
2013-06-29 07:50:00,68.0,63.3,29.68,ESE,122,0.0,0.0,85,0.00,,---,0.00,VWS V13.01,2013-06-29 14:50:00,
2013-06-29 07:51:00,68.0,63.3,29.68,ESE,122,0.0,0.0,85,0.00,,---,0.00,VWS V13.01,2013-06-29 14:51:00,
2013-06-29 07:55:00,68.2,63.5,29.68,ESE,122,0.0,0.0,85,0.00,,---,0.00,VWS V13.01,2013-06-29 14:55:00,
2013-06-29 07:56:00,68.2,63.2,29.68,ESE,122,0.0,0.0,84,0.00,,---,0.00,VWS V13.01,2013-06-29 14:56:00,
2013-06-29 07:57:00,68.2,63.2,29.68,ESE,122,0.0,0.0,84,0.00,,---,0.00,VWS V13.01,2013-06-29 14:57:00,
2013-06-29 08:00:00,68.4,63.3,29.68,ESE,122,0.0,0.0,84,0.00,,---,0.00,VWS V13.01,2013-06-29 15:00:00,
2013-06-29 08:01:00,68.5,63.5,29.65,ESE,122,0.0,0.0,84,0.00,,---,0.00,VWS V13.01,2013-06-29 15:01:00,
2013-06-29 08:02:00,68.5,63.5,29.65,ESE,122,0.0,0.0,84,0.00,,---,0.00,VWS V13.01,2013-06-29 15:02:00,
2013-06-29 08:05:00,68.9,63.5,29.65,ESE,122,0.0,0.0,83,0.00,,---,0.00,VWS V13.01,2013-06-29 15:05:00,
2013-06-29 08:06:00,68.9,63.5,29.65,ESE,122,0.0,0.0,83,0.00,,---,0.00,VWS V13.01,2013-06-29 15:06:00,
2013-06-29 08:07:00,69.1,63.7,29.65,ESE,122,0.0,0.0,83,0.00,,---,0.00,VWS V13.01,2013-06-29 15:07:00,
2013-06-29 08:10:00,69.3,63.5,29.65,ESE,122,0.0,0.0,82,0.00,,---,0.00,VWS V13.01,2013-06-29 15:10:00,
2013-06-29 08:11:00,69.3,63.5,29.65,NE,49,0.0,0.0,82,0.00,,---,0.00,VWS V13.01,2013-06-29 15:11:00,
2013-06-29 08:12:00,69.6,63.9,29.65,NE,49,0.0,0.0,82,0.00,,---,0.00,VWS V13.01,2013-06-29 15:12:00,
2013-06-29 08:15:00,69.6,63.9,29.65,East,84,0.0,0.0,82,0.00,,---,0.00,VWS V13.01,2013-06-29 15:15:00,
2013-06-29 08:16:00,70.2,63.7,29.65,East,84,0.0,0.0,80,0.00,,---,0.00,VWS V13.01,2013-06-29 15:16:00,
2013-06-29 08:17:00,70.2,63.7,29.65,East,84,0.0,0.0,80,0.00,,---,0.00,VWS V13.01,2013-06-29 15:17:00,
2013-06-29 08:20:00,70.5,64.1,29.65,East,84,0.0,0.0,80,0.00,,---,0.00,VWS V13.01,2013-06-29 15:20:00,
2013-06-29 08:21:00,70.5,64.1,29.65,East,84,0.0,0.0,80,0.00,,---,0.00,VWS V13.01,2013-06-29 15:21:00,
2013-06-29 08:22:00,70.5,64.1,29.68,East,85,0.0,0.0,80,0.00,,---,0.00,VWS V13.01,2013-06-29 15:22:00,
2013-06-29 08:25:00,71.1,64.2,29.68,East,85,0.0,0.0,79,0.00,,---,0.00,VWS V13.01,2013-06-29 15:25:00,
2013-06-29 08:26:00,71.2,64.0,29.68,ESE,112,2.7,2.7,78,0.00,,---,0.00,VWS V13.01,2013-06-29 15:26:00,
2013-06-29 08:27:00,71.2,64.0,29.68,ESE,112,2.7,2.7,78,0.00,,---,0.00,VWS V13.01,2013-06-29 15:27:00,
2013-06-29 08:30:00,71.4,63.1,29.68,ESE,112,2.7,2.7,75,0.00,,---,0.00,VWS V13.01,2013-06-29 15:30:00,
2013-06-29 08:31:00,71.4,62.7,29.68,ESE,112,2.7,2.7,74,0.00,,---,0.00,VWS V13.01,2013-06-29 15:31:00,
2013-06-29 08:32:00,71.4,62.7,29.68,ESE,112,2.7,2.7,74,0.00,,---,0.00,VWS V13.01,2013-06-29 15:32:00,
2013-06-29 08:35:00,71.6,62.9,29.68,ESE,116,2.7,2.7,74,0.00,,---,0.00,VWS V13.01,2013-06-29 15:35:00,
2013-06-29 08:37:00,71.6,62.9,29.68,ESE,116,2.7,2.7,74,0.00,,---,0.00,VWS V13.01,2013-06-29 15:37:00,
2013-06-29 08:40:00,71.6,62.5,29.68,ESE,102,0.0,0.0,73,0.00,,---,0.00,VWS V13.01,2013-06-29 15:40:00,
2013-06-29 08:42:00,71.8,62.7,29.68,SE,128,2.2,2.2,73,0.00,,---,0.00,VWS V13.01,2013-06-29 15:42:00,
2013-06-29 08:43:00,71.8,62.7,29.68,SE,128,0.0,0.0,73,0.00,,---,0.00,VWS V13.01,2013-06-29 15:43:00,
2013-06-29 08:45:00,71.8,62.3,29.68,WSW,247,4.0,4.0,72,0.00,,---,0.00,VWS V13.01,2013-06-29 15:45:00,
2013-06-29 08:47:00,71.6,61.7,29.68,WSW,247,3.6,3.6,71,0.00,,---,0.00,VWS V13.01,2013-06-29 15:47:00,
2013-06-29 08:48:00,71.4,61.5,29.68,WSW,247,3.6,3.6,71,0.00,,---,0.00,VWS V13.01,2013-06-29 15:48:00,
2013-06-29 08:50:00,71.4,61.9,29.68,WSW,237,3.6,4.5,72,0.00,,---,0.00,VWS V13.01,2013-06-29 15:50:00,
2013-06-29 08:52:00,71.6,61.7,29.68,SW,229,2.2,3.1,71,0.00,,---,0.00,VWS V13.01,2013-06-29 15:52:00,
2013-06-29 08:53:00,71.6,61.7,29.68,SW,229,2.2,3.1,71,0.00,,---,0.00,VWS V13.01,2013-06-29 15:53:00,
2013-06-29 08:55:00,71.8,61.9,29.68,SSE,153,2.7,2.7,71,0.00,,---,0.00,VWS V13.01,2013-06-29 15:55:00,
2013-06-29 08:57:00,72.0,62.0,29.68,SW,232,0.0,0.0,71,0.00,,---,0.00,VWS V13.01,2013-06-29 15:57:00,
2013-06-29 08:58:00,72.0,62.0,29.68,SW,232,0.0,0.0,71,0.00,,---,0.00,VWS V13.01,2013-06-29 15:58:00,
2013-06-29 09:01:00,72.0,62.0,29.68,WNW,290,0.0,0.0,71,0.00,,---,0.00,VWS V13.01,2013-06-29 16:01:00,
2013-06-29 09:02:00,71.8,61.9,29.68,WNW,290,0.0,0.0,71,0.00,,---,0.00,VWS V13.01,2013-06-29 16:02:00,
2013-06-29 09:03:00,71.8,61.9,29.68,WNW,290,0.0,0.0,71,0.00,,---,0.00,VWS V13.01,2013-06-29 16:03:00,
2013-06-29 09:06:00,72.0,62.0,29.68,SW,223,3.1,3.1,71,0.00,,---,0.00,VWS V13.01,2013-06-29 16:06:00,
2013-06-29 09:07:00,72.0,62.0,29.68,SW,225,2.2,2.2,71,0.00,,---,0.00,VWS V13.01,2013-06-29 16:07:00,
2013-06-29 09:08:00,72.0,62.0,29.68,SW,225,2.2,2.2,71,0.00,,---,0.00,VWS V13.01,2013-06-29 16:08:00,
2013-06-29 09:11:00,72.0,61.7,29.68,West,275,2.7,2.7,70,0.00,,---,0.00,VWS V13.01,2013-06-29 16:11:00,
2013-06-29 09:12:00,72.0,61.7,29.68,West,259,0.0,0.0,70,0.00,,---,0.00,VWS V13.01,2013-06-29 16:12:00,
2013-06-29 09:13:00,72.0,61.7,29.68,West,259,0.0,0.0,70,0.00,,---,0.00,VWS V13.01,2013-06-29 16:13:00,
2013-06-29 09:16:00,72.1,61.8,29.68,West,275,5.8,5.8,70,0.00,,---,0.00,VWS V13.01,2013-06-29 16:16:00,
2013-06-29 09:17:00,72.1,61.4,29.68,WSW,245,2.7,2.7,69,0.00,,---,0.00,VWS V13.01,2013-06-29 16:17:00,
2013-06-29 09:18:00,72.3,61.6,29.68,WSW,245,2.7,2.7,69,0.00,,---,0.00,VWS V13.01,2013-06-29 16:18:00,
2013-06-29 09:21:00,72.5,61.3,29.68,West,272,5.4,5.4,68,0.00,,---,0.00,VWS V13.01,2013-06-29 16:21:00,
2013-06-29 09:22:00,72.7,61.5,29.68,SSW,194,0.0,0.0,68,0.00,,---,0.00,VWS V13.01,2013-06-29 16:22:00,
2013-06-29 09:23:00,72.7,61.5,29.68,SSW,194,0.0,0.0,68,0.00,,---,0.00,VWS V13.01,2013-06-29 16:23:00,
2013-06-29 09:24:00,73.0,61.5,29.68,SSW,194,0.0,0.0,67,0.00,,---,0.00,VWS V13.01,2013-06-29 16:24:00,
2013-06-29 09:26:00,73.0,61.0,29.68,WSW,248,3.1,3.1,66,0.00,,---,0.00,VWS V13.01,2013-06-29 16:26:00,
2013-06-29 09:28:00,73.2,61.6,29.68,WSW,241,2.7,2.7,67,0.00,,---,0.00,VWS V13.01,2013-06-29 16:28:00,
2013-06-29 09:29:00,73.2,61.6,29.68,WNW,283,3.6,3.6,67,0.00,,---,0.00,VWS V13.01,2013-06-29 16:29:00,
2013-06-29 09:32:00,72.9,60.4,29.68,WSW,253,2.2,4.0,65,0.00,,---,0.00,VWS V13.01,2013-06-29 16:32:00,
2013-06-29 09:33:00,72.9,60.4,29.68,WNW,287,3.6,3.6,65,0.00,,---,0.00,VWS V13.01,2013-06-29 16:33:00,
2013-06-29 09:34:00,72.9,60.4,29.68,SW,218,2.7,3.6,65,0.00,,---,0.00,VWS V13.01,2013-06-29 16:34:00,
2013-06-29 09:37:00,73.0,60.6,29.68,West,260,0.0,0.0,65,0.00,,---,0.00,VWS V13.01,2013-06-29 16:37:00,
2013-06-29 09:38:00,73.4,60.9,29.68,West,265,3.1,3.1,65,0.00,,---,0.00,VWS V13.01,2013-06-29 16:38:00,
2013-06-29 09:39:00,73.4,60.9,29.68,West,264,2.7,2.7,65,0.00,,---,0.00,VWS V13.01,2013-06-29 16:39:00,
2013-06-29 09:40:00,73.4,60.5,29.68,West,264,2.7,2.7,64,0.00,,---,0.00,VWS V13.01,2013-06-29 16:40:00,
2013-06-29 09:42:00,73.4,60.5,29.68,WSW,241,3.6,3.6,64,0.00,,---,0.00,VWS V13.01,2013-06-29 16:42:00,
2013-06-29 09:43:00,73.6,60.7,29.68,SW,233,0.0,3.6,64,0.00,,---,0.00,VWS V13.01,2013-06-29 16:43:00,
2013-06-29 09:44:00,73.6,60.7,29.68,SW,233,0.0,0.0,64,0.00,,---,0.00,VWS V13.01,2013-06-29 16:44:00,
2013-06-29 09:45:00,73.6,60.7,29.68,SSE,165,2.2,2.2,64,0.00,,---,0.00,VWS V13.01,2013-06-29 16:45:00,
2013-06-29 09:47:00,73.8,60.8,29.68,SSW,206,2.2,3.1,64,0.00,,---,0.00,VWS V13.01,2013-06-29 16:47:00,
2013-06-29 09:49:00,73.8,60.8,29.68,SSW,206,2.2,2.2,64,0.00,,---,0.00,VWS V13.01,2013-06-29 16:49:00,
2013-06-29 09:50:00,73.9,61.0,29.68,East,99,2.2,2.2,64,0.00,,---,0.00,VWS V13.01,2013-06-29 16:50:00,
2013-06-29 09:52:00,74.1,61.2,29.68,NE,56,0.0,0.0,64,0.00,,---,0.00,VWS V13.01,2013-06-29 16:52:00,
2013-06-29 09:54:00,74.1,61.2,29.68,SSW,199,3.1,3.1,64,0.00,,---,0.00,VWS V13.01,2013-06-29 16:54:00,
2013-06-29 09:55:00,73.9,60.1,29.68,WSW,248,0.0,2.7,62,0.00,,---,0.00,VWS V13.01,2013-06-29 16:55:00,
2013-06-29 09:57:00,73.9,60.1,29.68,WSW,248,0.0,0.0,62,0.00,,---,0.00,VWS V13.01,2013-06-29 16:57:00,
2013-06-29 09:59:00,74.1,60.3,29.68,WSW,248,0.0,0.0,62,0.00,,---,0.00,VWS V13.01,2013-06-29 16:59:00,
2013-06-29 10:01:00,74.1,60.3,29.68,ENE,68,0.0,0.0,62,0.00,,---,0.00,VWS V13.01,2013-06-29 17:01:00,
2013-06-29 10:02:00,74.1,60.3,29.68,ENE,68,0.0,0.0,62,0.00,,---,0.00,VWS V13.01,2013-06-29 17:02:00,
2013-06-29 10:04:00,74.1,59.8,29.68,ESE,106,0.0,0.0,61,0.00,,---,0.00,VWS V13.01,2013-06-29 17:04:00,
2013-06-29 10:06:00,74.3,60.5,29.68,ESE,106,0.0,0.0,62,0.00,,---,0.00,VWS V13.01,2013-06-29 17:06:00,
2013-06-29 10:07:00,74.3,60.5,29.68,ESE,106,0.0,0.0,62,0.00,,---,0.00,VWS V13.01,2013-06-29 17:07:00,
2013-06-29 10:09:00,74.3,60.5,29.68,ESE,106,0.0,0.0,62,0.00,,---,0.00,VWS V13.01,2013-06-29 17:09:00,
2013-06-29 10:10:00,74.3,60.5,29.68,ESE,106,0.0,0.0,62,0.00,,---,0.00,VWS V13.01,2013-06-29 17:10:00,
2013-06-29 10:11:00,74.5,60.2,29.68,ESE,106,0.0,0.0,61,0.00,,---,0.00,VWS V13.01,2013-06-29 17:11:00,
2013-06-29 10:13:00,74.5,60.2,29.68,ESE,123,0.0,0.0,61,0.00,,---,0.00,VWS V13.01,2013-06-29 17:13:00,
2013-06-29 10:14:00,75.0,60.7,29.68,ESE,123,0.0,0.0,61,0.00,,---,0.00,VWS V13.01,2013-06-29 17:14:00,
2013-06-29 10:15:00,75.0,60.7,29.68,ESE,123,0.0,0.0,61,0.00,,---,0.00,VWS V13.01,2013-06-29 17:15:00,
2013-06-29 10:16:00,75.0,60.7,29.68,WSW,255,3.6,3.6,61,0.00,,---,0.00,VWS V13.01,2013-06-29 17:16:00,
2013-06-29 10:18:00,75.2,59.9,29.68,WSW,257,0.0,0.0,59,0.00,,---,0.00,VWS V13.01,2013-06-29 17:18:00,
2013-06-29 10:19:00,75.2,59.9,29.68,East,96,0.0,0.0,59,0.00,,---,0.00,VWS V13.01,2013-06-29 17:19:00,
2013-06-29 10:20:00,75.2,59.9,29.68,East,96,0.0,0.0,59,0.00,,---,0.00,VWS V13.01,2013-06-29 17:20:00,
2013-06-29 10:21:00,75.2,59.9,29.68,East,96,0.0,0.0,59,0.00,,---,0.00,VWS V13.01,2013-06-29 17:21:00,
2013-06-29 10:23:00,75.7,60.9,29.68,SW,231,0.0,0.0,60,0.00,,---,0.00,VWS V13.01,2013-06-29 17:23:00,
2013-06-29 10:25:00,75.6,60.2,29.68,West,262,3.1,3.1,59,0.00,,---,0.00,VWS V13.01,2013-06-29 17:25:00,
2013-06-29 10:26:00,75.6,60.2,29.68,WSW,245,3.1,3.1,59,0.00,,---,0.00,VWS V13.01,2013-06-29 17:26:00,
2013-06-29 10:28:00,75.6,59.8,29.68,WSW,245,3.1,3.1,58,0.00,,---,0.00,VWS V13.01,2013-06-29 17:28:00,
2013-06-29 10:30:00,75.4,59.6,29.68,WSW,245,3.1,3.1,58,0.00,,---,0.00,VWS V13.01,2013-06-29 17:30:00,
2013-06-29 10:31:00,75.4,60.1,29.68,WSW,245,0.0,3.1,59,0.00,,---,0.00,VWS V13.01,2013-06-29 17:31:00,
2013-06-29 10:33:00,75.6,60.2,29.68,WSW,245,0.0,0.0,59,0.00,,---,0.00,VWS V13.01,2013-06-29 17:33:00,
2013-06-29 10:35:00,75.6,60.2,29.68,West,259,3.1,3.1,59,0.00,,---,0.00,VWS V13.01,2013-06-29 17:35:00,
2013-06-29 10:36:00,75.6,60.2,29.68,South,169,3.1,3.1,59,0.00,,---,0.00,VWS V13.01,2013-06-29 17:36:00,
2013-06-29 10:37:00,75.6,60.2,29.68,South,169,3.1,3.1,59,0.00,,---,0.00,VWS V13.01,2013-06-29 17:37:00,
2013-06-29 10:38:00,75.6,60.2,29.68,SSW,198,0.0,0.0,59,0.00,,---,0.00,VWS V13.01,2013-06-29 17:38:00,
2013-06-29 10:40:00,75.6,60.2,29.68,West,266,2.7,2.7,59,0.00,,---,0.00,VWS V13.01,2013-06-29 17:40:00,
2013-06-29 10:41:00,75.4,59.1,29.68,West,267,0.0,0.0,57,0.00,,---,0.00,VWS V13.01,2013-06-29 17:41:00,
2013-06-29 10:42:00,75.4,59.1,29.68,West,267,0.0,0.0,57,0.00,,---,0.00,VWS V13.01,2013-06-29 17:42:00,
2013-06-29 10:43:00,75.4,59.1,29.68,WSW,251,2.7,2.7,57,0.00,,---,0.00,VWS V13.01,2013-06-29 17:43:00,
2013-06-29 10:45:00,75.7,59.9,29.68,WSW,251,0.0,0.0,58,0.00,,---,0.00,VWS V13.01,2013-06-29 17:45:00,
2013-06-29 10:46:00,75.7,59.9,29.68,WSW,251,0.0,0.0,58,0.00,,---,0.00,VWS V13.01,2013-06-29 17:46:00,
2013-06-29 10:47:00,75.9,59.6,29.68,WSW,251,2.7,2.7,57,0.00,,---,0.00,VWS V13.01,2013-06-29 17:47:00,
2013-06-29 10:48:00,75.7,59.4,29.68,WSW,249,0.0,0.0,57,0.00,,---,0.00,VWS V13.01,2013-06-29 17:48:00,
2013-06-29 10:50:00,75.7,59.4,29.68,WSW,250,0.0,5.4,57,0.00,,---,0.00,VWS V13.01,2013-06-29 17:50:00,
2013-06-29 10:51:00,75.6,59.3,29.68,WSW,250,0.0,0.0,57,0.00,,---,0.00,VWS V13.01,2013-06-29 17:51:00,
2013-06-29 10:52:00,75.6,58.8,29.68,WNW,288,3.1,3.1,56,0.00,,---,0.00,VWS V13.01,2013-06-29 17:52:00,
2013-06-29 10:53:00,75.6,59.3,29.68,WNW,288,0.0,3.1,57,0.00,,---,0.00,VWS V13.01,2013-06-29 17:53:00,
2013-06-29 10:56:00,75.7,59.4,29.68,WSW,241,3.1,3.1,57,0.00,,---,0.00,VWS V13.01,2013-06-29 17:56:00,
2013-06-29 10:58:00,75.7,59.4,29.68,WSW,241,3.1,3.1,57,0.00,,---,0.00,VWS V13.01,2013-06-29 17:58:00,
2013-06-29 10:59:00,75.9,59.1,29.68,WSW,241,3.1,3.1,56,0.00,,---,0.00,VWS V13.01,2013-06-29 17:59:00,
2013-06-29 11:01:00,75.9,59.1,29.68,South,183,0.0,2.7,56,0.00,,---,0.00,VWS V13.01,2013-06-29 18:01:00,
2013-06-29 11:03:00,75.9,59.1,29.68,South,183,0.0,0.0,56,0.00,,---,0.00,VWS V13.01,2013-06-29 18:03:00,
2013-06-29 11:04:00,75.9,59.6,29.68,WSW,238,3.1,3.1,57,0.00,,---,0.00,VWS V13.01,2013-06-29 18:04:00,
2013-06-29 11:06:00,75.7,59.0,29.68,SSE,162,0.0,0.0,56,0.00,,---,0.00,VWS V13.01,2013-06-29 18:06:00,
2013-06-29 11:07:00,75.7,59.0,29.68,SSE,162,0.0,0.0,56,0.00,,---,0.00,VWS V13.01,2013-06-29 18:07:00,
2013-06-29 11:08:00,75.7,59.0,29.68,SE,135,3.6,3.6,56,0.00,,---,0.00,VWS V13.01,2013-06-29 18:08:00,
2013-06-29 11:09:00,75.7,59.0,29.68,SE,135,2.2,2.2,56,0.00,,---,0.00,VWS V13.01,2013-06-29 18:09:00,
2013-06-29 11:12:00,76.1,59.3,29.68,SE,135,0.0,0.0,56,0.00,,---,0.00,VWS V13.01,2013-06-29 18:12:00,
2013-06-29 11:13:00,76.1,59.3,29.68,SW,232,0.0,2.7,56,0.00,,---,0.00,VWS V13.01,2013-06-29 18:13:00,
2013-06-29 11:14:00,76.3,58.9,29.68,SW,232,0.0,0.0,55,0.00,,---,0.00,VWS V13.01,2013-06-29 18:14:00,
2013-06-29 11:17:00,77.0,59.6,29.68,West,268,0.0,0.0,55,0.00,,---,0.00,VWS V13.01,2013-06-29 18:17:00,
2013-06-29 11:18:00,77.5,59.6,29.68,West,268,0.0,0.0,54,0.00,,---,0.00,VWS V13.01,2013-06-29 18:18:00,
2013-06-29 11:19:00,77.4,59.4,29.68,West,268,0.0,0.0,54,0.00,,---,0.00,VWS V13.01,2013-06-29 18:19:00,
2013-06-29 11:22:00,77.0,58.6,29.68,SSE,162,3.1,3.6,53,0.00,,---,0.00,VWS V13.01,2013-06-29 18:22:00,
2013-06-29 11:24:00,77.2,59.3,29.68,WSW,240,3.1,3.1,54,0.00,,---,0.00,VWS V13.01,2013-06-29 18:24:00,
2013-06-29 11:27:00,77.0,59.1,29.68,SW,229,3.1,3.6,54,0.00,,---,0.00,VWS V13.01,2013-06-29 18:27:00,
2013-06-29 11:28:00,77.0,59.1,29.68,SW,229,3.1,3.1,54,0.00,,---,0.00,VWS V13.01,2013-06-29 18:28:00,
2013-06-29 11:29:00,77.0,59.1,29.68,West,271,3.1,5.8,54,0.00,,---,0.00,VWS V13.01,2013-06-29 18:29:00,
2013-06-29 11:30:00,77.0,59.1,29.68,West,271,3.1,3.1,54,0.00,,---,0.00,VWS V13.01,2013-06-29 18:30:00,
2013-06-29 11:32:00,76.6,58.8,29.68,West,274,0.0,3.1,54,0.00,,---,0.00,VWS V13.01,2013-06-29 18:32:00,
2013-06-29 11:33:00,76.6,58.8,29.68,West,274,0.0,0.0,54,0.00,,---,0.00,VWS V13.01,2013-06-29 18:33:00,
2013-06-29 11:34:00,76.6,58.8,29.68,WSW,248,0.0,0.0,54,0.00,,---,0.00,VWS V13.01,2013-06-29 18:34:00,
2013-06-29 11:35:00,76.6,58.8,29.68,WSW,252,0.0,0.0,54,0.00,,---,0.00,VWS V13.01,2013-06-29 18:35:00,
2013-06-29 11:37:00,76.6,58.8,29.68,WSW,256,5.4,5.8,54,0.00,,---,0.00,VWS V13.01,2013-06-29 18:37:00,
2013-06-29 11:38:00,76.6,58.8,29.68,WSW,256,5.4,5.4,54,0.00,,---,0.00,VWS V13.01,2013-06-29 18:38:00,
2013-06-29 11:39:00,76.6,58.2,29.68,West,266,5.4,5.4,53,0.00,,---,0.00,VWS V13.01,2013-06-29 18:39:00,
2013-06-29 11:40:00,76.6,58.2,29.68,West,273,4.0,5.4,53,0.00,,---,0.00,VWS V13.01,2013-06-29 18:40:00,
2013-06-29 11:42:00,76.3,58.4,29.68,WNW,283,2.7,2.7,54,0.00,,---,0.00,VWS V13.01,2013-06-29 18:42:00,
2013-06-29 11:43:00,76.3,58.4,29.68,WNW,283,2.7,2.7,54,0.00,,---,0.00,VWS V13.01,2013-06-29 18:43:00,
2013-06-29 11:44:00,76.3,58.4,29.68,WNW,283,2.7,2.7,54,0.00,,---,0.00,VWS V13.01,2013-06-29 18:44:00,
2013-06-29 11:45:00,76.3,58.4,29.68,WNW,283,2.7,2.7,54,0.00,,---,0.00,VWS V13.01,2013-06-29 18:45:00,
2013-06-29 11:47:00,76.5,58.6,29.68,SSW,213,0.0,2.7,54,0.00,,---,0.00,VWS V13.01,2013-06-29 18:47:00,
2013-06-29 11:48:00,76.5,58.6,29.68,SSW,213,0.0,0.0,54,0.00,,---,0.00,VWS V13.01,2013-06-29 18:48:00,
2013-06-29 11:49:00,76.5,58.6,29.68,SSW,213,0.0,0.0,54,0.00,,---,0.00,VWS V13.01,2013-06-29 18:49:00,
2013-06-29 11:50:00,76.5,58.6,29.68,West,280,5.8,5.8,54,0.00,,---,0.00,VWS V13.01,2013-06-29 18:50:00,
2013-06-29 11:53:00,76.3,58.4,29.68,WNW,284,4.9,4.9,54,0.00,,---,0.00,VWS V13.01,2013-06-29 18:53:00,
2013-06-29 11:54:00,76.3,58.4,29.68,West,275,7.6,7.6,54,0.00,,---,0.00,VWS V13.01,2013-06-29 18:54:00,
2013-06-29 11:55:00,76.3,58.4,29.68,West,269,4.0,7.2,54,0.00,,---,0.00,VWS V13.01,2013-06-29 18:55:00,
2013-06-29 11:58:00,76.1,58.3,29.68,SSE,166,3.6,3.6,54,0.00,,---,0.00,VWS V13.01,2013-06-29 18:58:00,
2013-06-29 11:59:00,76.1,58.8,29.68,West,274,4.0,4.0,55,0.00,,---,0.00,VWS V13.01,2013-06-29 18:59:00,
2013-06-29 12:00:00,76.3,58.9,29.68,West,267,2.2,2.2,55,0.00,,---,0.00,VWS V13.01,2013-06-29 19:00:00,
2013-06-29 12:03:00,76.5,59.1,29.68,SSW,196,3.6,3.6,55,0.00,,---,0.00,VWS V13.01,2013-06-29 19:03:00,
2013-06-29 12:04:00,76.6,59.3,29.68,SSW,196,3.6,3.6,55,0.00,,---,0.00,VWS V13.01,2013-06-29 19:04:00,
2013-06-29 12:05:00,77.0,59.6,29.68,South,174,0.0,3.6,55,0.00,,---,0.00,VWS V13.01,2013-06-29 19:05:00,
2013-06-29 12:08:00,77.0,59.1,29.68,SSE,157,0.0,0.0,54,0.00,,---,0.00,VWS V13.01,2013-06-29 19:08:00,
2013-06-29 12:09:00,77.0,59.1,29.68,SSE,157,0.0,0.0,54,0.00,,---,0.00,VWS V13.01,2013-06-29 19:09:00,
2013-06-29 12:10:00,77.0,59.6,29.68,SW,214,3.1,3.1,55,0.00,,---,0.00,VWS V13.01,2013-06-29 19:10:00,
2013-06-29 12:11:00,77.0,59.6,29.68,SW,214,3.1,3.1,55,0.00,,---,0.00,VWS V13.01,2013-06-29 19:11:00,
2013-06-29 12:13:00,77.4,60.5,29.68,West,280,2.7,2.7,56,0.00,,---,0.00,VWS V13.01,2013-06-29 19:13:00,
2013-06-29 12:14:00,77.4,60.5,29.68,SSE,150,0.0,0.0,56,0.00,,---,0.00,VWS V13.01,2013-06-29 19:14:00,
2013-06-29 12:15:00,77.7,61.3,29.68,SSE,150,0.0,0.0,57,0.00,,---,0.00,VWS V13.01,2013-06-29 19:15:00,
2013-06-29 12:16:00,78.3,61.8,29.68,SSE,150,0.0,0.0,57,0.00,,---,0.00,VWS V13.01,2013-06-29 19:16:00,
2013-06-29 12:18:00,78.3,61.8,29.68,WSW,240,0.0,0.0,57,0.00,,---,0.00,VWS V13.01,2013-06-29 19:18:00,
2013-06-29 12:19:00,78.3,61.8,29.68,WSW,241,2.7,2.7,57,0.00,,---,0.00,VWS V13.01,2013-06-29 19:19:00,
2013-06-29 12:20:00,78.4,60.4,29.68,WSW,248,0.0,0.0,54,0.00,,---,0.00,VWS V13.01,2013-06-29 19:20:00,
2013-06-29 12:21:00,78.4,60.4,29.68,ESE,116,3.1,3.6,54,0.00,,---,0.00,VWS V13.01,2013-06-29 19:21:00,
2013-06-29 12:24:00,79.5,61.4,29.68,SSE,153,3.6,3.6,54,0.00,,---,0.00,VWS V13.01,2013-06-29 19:24:00,
2013-06-29 12:25:00,79.5,61.4,29.68,SSE,153,3.6,3.6,54,0.00,,---,0.00,VWS V13.01,2013-06-29 19:25:00,
2013-06-29 12:27:00,79.7,61.6,29.68,SE,132,2.2,2.2,54,0.00,,---,0.00,VWS V13.01,2013-06-29 19:27:00,
2013-06-29 12:29:00,79.9,61.2,29.68,SE,132,0.0,0.0,53,0.00,,---,0.00,VWS V13.01,2013-06-29 19:29:00,
2013-06-29 12:30:00,79.9,61.8,29.68,SSW,209,0.0,0.0,54,0.00,,---,0.00,VWS V13.01,2013-06-29 19:30:00,
2013-06-29 12:32:00,79.7,60.5,29.68,West,273,2.7,2.7,52,0.00,,---,0.00,VWS V13.01,2013-06-29 19:32:00,
2013-06-29 12:34:00,79.3,60.2,29.68,West,273,3.6,3.6,52,0.00,,---,0.00,VWS V13.01,2013-06-29 19:34:00,
2013-06-29 12:36:00,79.0,59.3,29.68,West,261,4.0,4.0,51,0.00,,---,0.00,VWS V13.01,2013-06-29 19:36:00,
2013-06-29 12:37:00,78.8,59.2,29.68,West,261,4.0,4.0,51,0.00,,---,0.00,VWS V13.01,2013-06-29 19:37:00,
2013-06-29 12:39:00,78.4,59.4,29.68,WSW,246,0.0,0.0,52,0.00,,---,0.00,VWS V13.01,2013-06-29 19:39:00,
2013-06-29 12:41:00,78.4,59.4,29.68,WSW,253,0.0,0.0,52,0.00,,---,0.00,VWS V13.01,2013-06-29 19:41:00,
2013-06-29 12:42:00,77.9,58.9,29.68,WNW,293,4.0,4.0,52,0.00,,---,0.00,VWS V13.01,2013-06-29 19:42:00,
2013-06-29 12:44:00,77.9,58.9,29.68,SW,231,2.2,2.2,52,0.00,,---,0.00,VWS V13.01,2013-06-29 19:44:00,
2013-06-29 12:45:00,77.9,58.9,29.68,SW,231,2.2,2.2,52,0.00,,---,0.00,VWS V13.01,2013-06-29 19:45:00,
2013-06-29 12:46:00,77.9,58.9,29.68,SW,229,2.7,2.7,52,0.00,,---,0.00,VWS V13.01,2013-06-29 19:46:00,
2013-06-29 12:48:00,77.9,59.4,29.68,SSW,210,2.2,2.2,53,0.00,,---,0.00,VWS V13.01,2013-06-29 19:48:00,
2013-06-29 12:49:00,77.9,59.4,29.68,West,269,5.4,5.4,53,0.00,,---,0.00,VWS V13.01,2013-06-29 19:49:00,
2013-06-29 12:50:00,78.1,59.6,29.68,West,260,3.1,3.1,53,0.00,,---,0.00,VWS V13.01,2013-06-29 19:50:00,
2013-06-29 12:52:00,77.7,59.2,29.68,WNW,288,3.1,3.1,53,0.00,,---,0.00,VWS V13.01,2013-06-29 19:52:00,
2013-06-29 12:53:00,77.7,59.2,29.68,NW,307,5.8,5.8,53,0.00,,---,0.00,VWS V13.01,2013-06-29 19:53:00,
2013-06-29 12:54:00,77.4,58.9,29.68,South,175,3.6,4.0,53,0.00,,---,0.00,VWS V13.01,2013-06-29 19:54:00,
2013-06-29 12:55:00,77.4,58.9,29.68,South,175,3.6,3.6,53,0.00,,---,0.00,VWS V13.01,2013-06-29 19:55:00,
2013-06-29 12:57:00,77.5,59.6,29.68,SSW,198,3.1,3.1,54,0.00,,---,0.00,VWS V13.01,2013-06-29 19:57:00,
2013-06-29 12:58:00,78.1,60.1,29.68,West,268,3.6,3.6,54,0.00,,---,0.00,VWS V13.01,2013-06-29 19:58:00,
2013-06-29 12:59:00,78.1,60.1,29.68,West,268,3.6,3.6,54,0.00,,---,0.00,VWS V13.01,2013-06-29 19:59:00,
2013-06-29 13:00:00,78.1,60.1,29.68,West,270,3.1,3.6,54,0.00,,---,0.00,VWS V13.01,2013-06-29 20:00:00,
2013-06-29 13:02:00,79.0,60.4,29.68,West,265,4.0,4.0,53,0.00,,---,0.00,VWS V13.01,2013-06-29 20:02:00,
2013-06-29 13:04:00,79.3,60.7,29.68,WSW,246,3.6,3.6,53,0.00,,---,0.00,VWS V13.01,2013-06-29 20:04:00,
2013-06-29 13:05:00,79.5,60.9,29.68,SW,234,4.0,4.9,53,0.00,,---,0.00,VWS V13.01,2013-06-29 20:05:00,
2013-06-29 13:07:00,79.3,60.2,29.68,SW,218,3.6,3.6,52,0.00,,---,0.00,VWS V13.01,2013-06-29 20:07:00,
2013-06-29 13:09:00,79.2,60.6,29.68,SW,227,3.1,3.1,53,0.00,,---,0.00,VWS V13.01,2013-06-29 20:09:00,
2013-06-29 13:10:00,79.2,60.6,29.68,West,270,3.6,3.6,53,0.00,,---,0.00,VWS V13.01,2013-06-29 20:10:00,
2013-06-29 13:12:00,79.2,60.6,29.68,WSW,248,2.2,2.2,53,0.00,,---,0.00,VWS V13.01,2013-06-29 20:12:00,
2013-06-29 13:14:00,79.7,61.1,29.68,SSW,209,2.7,2.7,53,0.00,,---,0.00,VWS V13.01,2013-06-29 20:14:00,
2013-06-29 13:15:00,80.1,61.4,29.68,West,262,2.7,2.7,53,0.00,,---,0.00,VWS V13.01,2013-06-29 20:15:00,
2013-06-29 13:17:00,80.2,61.6,29.68,West,279,2.7,3.1,53,0.00,,---,0.00,VWS V13.01,2013-06-29 20:17:00,
2013-06-29 13:19:00,80.4,61.2,29.68,South,169,0.0,0.0,52,0.00,,---,0.00,VWS V13.01,2013-06-29 20:19:00,
2013-06-29 13:20:00,80.6,60.8,29.68,West,267,5.4,5.4,51,0.00,,---,0.00,VWS V13.01,2013-06-29 20:20:00,
2013-06-29 13:23:00,80.6,60.3,29.68,East,88,2.2,2.2,50,0.00,,---,0.00,VWS V13.01,2013-06-29 20:23:00,
2013-06-29 13:24:00,80.8,60.4,29.68,WNW,287,2.7,2.7,50,0.00,,---,0.00,VWS V13.01,2013-06-29 20:24:00,
2013-06-29 13:25:00,81.1,61.3,29.68,West,271,4.0,4.0,51,0.00,,---,0.00,VWS V13.01,2013-06-29 20:25:00,
2013-06-29 13:28:00,81.3,60.9,29.68,WNW,282,3.6,3.6,50,0.00,,---,0.00,VWS V13.01,2013-06-29 20:28:00,
2013-06-29 13:29:00,81.3,60.9,29.68,WNW,282,3.6,3.6,50,0.00,,---,0.00,VWS V13.01,2013-06-29 20:29:00,
2013-06-29 13:30:00,81.3,60.3,29.68,West,266,0.0,0.0,49,0.00,,---,0.00,VWS V13.01,2013-06-29 20:30:00,
2013-06-29 13:33:00,82.0,61.0,29.68,WSW,238,0.0,0.0,49,0.00,,---,0.00,VWS V13.01,2013-06-29 20:33:00,
2013-06-29 13:34:00,82.0,61.0,29.68,West,262,3.1,5.8,49,0.00,,---,0.00,VWS V13.01,2013-06-29 20:34:00,
2013-06-29 13:35:00,82.0,61.0,29.68,West,262,3.1,3.1,49,0.00,,---,0.00,VWS V13.01,2013-06-29 20:35:00,
2013-06-29 13:36:00,82.2,61.2,29.68,East,84,0.0,0.0,49,0.00,,---,0.00,VWS V13.01,2013-06-29 20:36:00,
2013-06-29 13:38:00,82.4,60.8,29.68,ESE,102,0.0,0.0,48,0.00,,---,0.00,VWS V13.01,2013-06-29 20:38:00,
2013-06-29 13:39:00,82.4,60.8,29.68,WSW,237,3.1,4.0,48,0.00,,---,0.00,VWS V13.01,2013-06-29 20:39:00,
2013-06-29 13:40:00,82.4,60.8,29.68,WSW,237,3.1,3.1,48,0.00,,---,0.00,VWS V13.01,2013-06-29 20:40:00,
2013-06-29 13:41:00,82.2,60.6,29.68,WSW,237,3.1,3.1,48,0.00,,---,0.00,VWS V13.01,2013-06-29 20:41:00,
2013-06-29 13:43:00,82.2,61.8,29.68,SW,236,0.0,0.0,50,0.00,,---,0.00,VWS V13.01,2013-06-29 20:43:00,
2013-06-29 13:44:00,82.4,61.3,29.68,SW,236,0.0,0.0,49,0.00,,---,0.00,VWS V13.01,2013-06-29 20:44:00,
2013-06-29 13:45:00,82.4,61.3,29.68,South,181,0.0,0.0,49,0.00,,---,0.00,VWS V13.01,2013-06-29 20:45:00,
2013-06-29 13:47:00,82.4,61.3,29.68,West,267,3.1,3.1,49,0.00,,---,0.00,VWS V13.01,2013-06-29 20:47:00,
2013-06-29 13:48:00,82.0,60.4,29.68,WSW,246,0.0,2.7,48,0.00,,---,0.00,VWS V13.01,2013-06-29 20:48:00,
2013-06-29 13:49:00,82.0,59.8,29.68,WSW,246,0.0,0.0,47,0.00,,---,0.00,VWS V13.01,2013-06-29 20:49:00,
2013-06-29 13:50:00,82.0,60.4,29.68,West,262,3.1,3.1,48,0.00,,---,0.00,VWS V13.01,2013-06-29 20:50:00,
2013-06-29 13:52:00,82.0,60.4,29.68,West,262,3.1,3.1,48,0.00,,---,0.00,VWS V13.01,2013-06-29 20:52:00,
2013-06-29 13:53:00,82.2,60.6,29.68,SE,140,0.0,0.0,48,0.00,,---,0.00,VWS V13.01,2013-06-29 20:53:00,
2013-06-29 13:54:00,82.8,61.1,29.68,SE,140,0.0,0.0,48,0.00,,---,0.00,VWS V13.01,2013-06-29 20:54:00,
2013-06-29 13:55:00,82.9,61.2,29.68,SSW,192,0.0,0.0,48,0.00,,---,0.00,VWS V13.01,2013-06-29 20:55:00,
2013-06-29 13:57:00,83.1,61.4,29.68,West,268,6.3,6.3,48,0.00,,---,0.00,VWS V13.01,2013-06-29 20:57:00,
2013-06-29 13:59:00,82.8,59.9,29.68,WSW,258,4.0,4.0,46,0.00,,---,0.00,VWS V13.01,2013-06-29 20:59:00,
2013-06-29 14:00:00,82.6,59.7,29.68,West,270,2.7,4.0,46,0.00,,---,0.00,VWS V13.01,2013-06-29 21:00:00,
2013-06-29 14:01:00,82.6,59.7,29.68,West,277,0.0,4.0,46,0.00,,---,0.00,VWS V13.01,2013-06-29 21:01:00,
2013-06-29 14:02:00,82.6,59.7,29.68,West,277,0.0,0.0,46,0.00,,---,0.00,VWS V13.01,2013-06-29 21:02:00,
2013-06-29 14:04:00,82.8,60.5,29.68,West,264,0.0,0.0,47,0.00,,---,0.00,VWS V13.01,2013-06-29 21:04:00,
2013-06-29 14:05:00,82.9,60.7,29.68,WSW,241,2.7,3.1,47,0.00,,---,0.00,VWS V13.01,2013-06-29 21:05:00,
2013-06-29 14:06:00,82.9,60.7,29.68,SW,221,4.0,4.0,47,0.00,,---,0.00,VWS V13.01,2013-06-29 21:06:00,
2013-06-29 14:07:00,83.7,61.3,29.65,SW,221,4.0,4.0,47,0.00,,---,0.00,VWS V13.01,2013-06-29 21:07:00,
2013-06-29 14:09:00,84.0,61.6,29.65,WSW,251,2.7,4.9,47,0.00,,---,0.00,VWS V13.01,2013-06-29 21:09:00,
2013-06-29 14:10:00,84.4,60.7,29.65,WNW,301,2.2,2.2,45,0.00,,---,0.00,VWS V13.01,2013-06-29 21:10:00,
2013-06-29 14:11:00,84.4,60.7,29.65,WNW,301,2.2,2.2,45,0.00,,---,0.00,VWS V13.01,2013-06-29 21:11:00,
2013-06-29 14:12:00,84.4,61.4,29.65,WNW,301,2.2,2.2,46,0.00,,---,0.00,VWS V13.01,2013-06-29 21:12:00,
2013-06-29 14:14:00,84.6,60.9,29.65,West,262,0.0,2.2,45,0.00,,---,0.00,VWS V13.01,2013-06-29 21:14:00,
2013-06-29 14:15:00,84.6,60.9,29.65,West,262,0.0,0.0,45,0.00,,---,0.00,VWS V13.01,2013-06-29 21:15:00,
2013-06-29 14:16:00,84.6,60.9,29.65,West,262,0.0,0.0,45,0.00,,---,0.00,VWS V13.01,2013-06-29 21:16:00,
2013-06-29 14:17:00,84.7,61.1,29.65,SSW,213,3.6,3.6,45,0.00,,---,0.00,VWS V13.01,2013-06-29 21:17:00,
2013-06-29 14:19:00,85.3,62.2,29.65,WNW,288,2.2,3.6,46,0.00,,---,0.00,VWS V13.01,2013-06-29 21:19:00,
2013-06-29 14:20:00,85.3,62.2,29.65,WNW,288,2.2,2.2,46,0.00,,---,0.00,VWS V13.01,2013-06-29 21:20:00,
2013-06-29 14:21:00,85.5,61.7,29.65,WNW,288,2.2,2.2,45,0.00,,---,0.00,VWS V13.01,2013-06-29 21:21:00,
2013-06-29 14:22:00,85.5,61.7,29.65,South,182,4.0,4.0,45,0.00,,---,0.00,VWS V13.01,2013-06-29 21:22:00,
2013-06-29 14:24:00,85.5,61.7,29.65,SSE,158,5.4,5.4,45,0.00,,---,0.00,VWS V13.01,2013-06-29 21:24:00,
2013-06-29 14:25:00,85.5,61.7,29.65,SSW,196,2.7,2.7,45,0.00,,---,0.00,VWS V13.01,2013-06-29 21:25:00,
2013-06-29 14:26:00,85.8,62.0,29.65,SSW,196,2.7,2.7,45,0.00,,---,0.00,VWS V13.01,2013-06-29 21:26:00,
2013-06-29 14:28:00,86.0,61.6,29.65,NNE,23,2.7,2.7,44,0.00,,---,0.00,VWS V13.01,2013-06-29 21:28:00,
2013-06-29 14:29:00,85.6,61.2,29.65,SW,236,4.0,4.0,44,0.00,,---,0.00,VWS V13.01,2013-06-29 21:29:00,
2013-06-29 14:30:00,85.6,61.2,29.65,SW,230,2.2,2.2,44,0.00,,---,0.00,VWS V13.01,2013-06-29 21:30:00,
2013-06-29 14:31:00,85.6,61.2,29.65,West,278,3.6,4.9,44,0.00,,---,0.00,VWS V13.01,2013-06-29 21:31:00,
2013-06-29 14:33:00,85.6,61.2,29.65,East,80,3.1,3.1,44,0.00,,---,0.00,VWS V13.01,2013-06-29 21:33:00,
2013-06-29 14:34:00,86.2,62.4,29.65,East,80,3.1,3.1,45,0.00,,---,0.00,VWS V13.01,2013-06-29 21:34:00,
2013-06-29 14:35:00,86.4,62.5,29.65,ENE,71,3.1,3.1,45,0.00,,---,0.00,VWS V13.01,2013-06-29 21:35:00,
2013-06-29 14:36:00,86.4,62.5,29.65,ENE,71,3.1,3.1,45,0.00,,---,0.00,VWS V13.01,2013-06-29 21:36:00,
2013-06-29 14:38:00,86.7,62.9,29.65,ENE,71,3.1,3.1,45,0.00,,---,0.00,VWS V13.01,2013-06-29 21:38:00,
2013-06-29 14:39:00,86.9,63.0,29.65,South,172,0.0,0.0,45,0.00,,---,0.00,VWS V13.01,2013-06-29 21:39:00,
2013-06-29 14:40:00,87.1,62.5,29.65,South,172,0.0,0.0,44,0.00,,---,0.00,VWS V13.01,2013-06-29 21:40:00,
2013-06-29 14:41:00,86.9,62.4,29.65,SW,232,2.2,2.2,44,0.00,,---,0.00,VWS V13.01,2013-06-29 21:41:00,
2013-06-29 14:43:00,86.4,61.2,29.65,WSW,251,4.0,4.9,43,0.00,,---,0.00,VWS V13.01,2013-06-29 21:43:00,
2013-06-29 14:45:00,86.2,61.1,29.65,West,260,4.0,4.0,43,0.00,,---,0.00,VWS V13.01,2013-06-29 21:45:00,
2013-06-29 14:46:00,86.4,61.9,29.65,West,260,4.0,4.0,44,0.00,,---,0.00,VWS V13.01,2013-06-29 21:46:00,
2013-06-29 14:48:00,86.4,61.9,29.65,SW,229,3.6,4.0,44,0.00,,---,0.00,VWS V13.01,2013-06-29 21:48:00,
2013-06-29 14:50:00,86.5,61.4,29.65,WSW,245,2.2,2.2,43,0.00,,---,0.00,VWS V13.01,2013-06-29 21:50:00,
2013-06-29 14:51:00,86.5,61.4,29.65,WSW,245,2.2,2.2,43,0.00,,---,0.00,VWS V13.01,2013-06-29 21:51:00,
2013-06-29 14:53:00,87.1,62.5,29.65,SSW,204,2.7,2.7,44,0.00,,---,0.00,VWS V13.01,2013-06-29 21:53:00,
2013-06-29 14:55:00,87.1,62.5,29.65,SSE,162,2.7,2.7,44,0.00,,---,0.00,VWS V13.01,2013-06-29 21:55:00,
2013-06-29 14:56:00,87.4,62.9,29.65,SE,126,2.7,2.7,44,0.00,,---,0.00,VWS V13.01,2013-06-29 21:56:00,
2013-06-29 14:58:00,87.8,62.5,29.65,East,100,0.0,0.0,43,0.00,,---,0.00,VWS V13.01,2013-06-29 21:58:00,
2013-06-29 15:00:00,87.8,62.5,29.65,SW,227,2.7,3.6,43,0.00,,---,0.00,VWS V13.01,2013-06-29 22:00:00,
2013-06-29 15:01:00,87.8,62.5,29.65,SW,227,2.2,2.2,43,0.00,,---,0.00,VWS V13.01,2013-06-29 22:01:00,
2013-06-29 15:02:00,87.6,62.4,29.65,SW,227,2.2,2.2,43,0.00,,---,0.00,VWS V13.01,2013-06-29 22:02:00,
2013-06-29 15:03:00,87.4,62.2,29.65,SW,233,0.0,0.0,43,0.00,,---,0.00,VWS V13.01,2013-06-29 22:03:00,
2013-06-29 15:05:00,87.8,62.5,29.65,South,171,2.7,2.7,43,0.00,,---,0.00,VWS V13.01,2013-06-29 22:05:00,
2013-06-29 15:06:00,87.8,62.5,29.65,South,171,2.7,2.7,43,0.00,,---,0.00,VWS V13.01,2013-06-29 22:06:00,
2013-06-29 15:07:00,87.8,62.5,29.65,South,171,2.7,2.7,43,0.00,,---,0.00,VWS V13.01,2013-06-29 22:07:00,
2013-06-29 15:09:00,88.7,64.0,29.65,SSE,150,4.0,4.0,44,0.00,,---,0.00,VWS V13.01,2013-06-29 22:09:00,
2013-06-29 15:10:00,88.7,64.0,29.65,SSE,160,0.0,2.2,44,0.00,,---,0.00,VWS V13.01,2013-06-29 22:10:00,
2013-06-29 15:11:00,88.9,62.8,29.65,SSE,160,0.0,0.0,42,0.00,,---,0.00,VWS V13.01,2013-06-29 22:11:00,
2013-06-29 15:12:00,88.9,62.8,29.65,SSE,160,0.0,0.0,42,0.00,,---,0.00,VWS V13.01,2013-06-29 22:12:00,
2013-06-29 15:14:00,87.6,61.7,29.65,WSW,251,6.3,6.3,42,0.00,,---,0.00,VWS V13.01,2013-06-29 22:14:00,
2013-06-29 15:15:00,87.6,61.7,29.65,SSE,164,5.4,5.4,42,0.00,,---,0.00,VWS V13.01,2013-06-29 22:15:00,
2013-06-29 15:16:00,87.4,61.5,29.65,WSW,249,3.1,5.4,42,0.00,,---,0.00,VWS V13.01,2013-06-29 22:16:00,
2013-06-29 15:17:00,87.4,61.5,29.65,WSW,248,3.1,3.1,42,0.00,,---,0.00,VWS V13.01,2013-06-29 22:17:00,
2013-06-29 15:19:00,87.8,61.9,29.65,WSW,248,0.0,0.0,42,0.00,,---,0.00,VWS V13.01,2013-06-29 22:19:00,
2013-06-29 15:20:00,87.6,61.7,29.65,WSW,248,0.0,0.0,42,0.00,,---,0.00,VWS V13.01,2013-06-29 22:20:00,
2013-06-29 15:21:00,87.6,61.7,29.65,WSW,257,5.8,5.8,42,0.00,,---,0.00,VWS V13.01,2013-06-29 22:21:00,
2013-06-29 15:22:00,87.1,61.2,29.65,NE,44,2.7,2.7,42,0.00,,---,0.00,VWS V13.01,2013-06-29 22:22:00,
2013-06-29 15:24:00,86.9,61.1,29.65,NE,42,4.0,4.0,42,0.00,,---,0.00,VWS V13.01,2013-06-29 22:24:00,
2013-06-29 15:25:00,87.1,61.2,29.65,NE,42,4.0,4.0,42,0.00,,---,0.00,VWS V13.01,2013-06-29 22:25:00,
2013-06-29 15:26:00,87.3,61.4,29.65,WSW,256,2.7,2.7,42,0.00,,---,0.00,VWS V13.01,2013-06-29 22:26:00,
2013-06-29 15:27:00,87.4,62.2,29.65,WSW,244,4.9,4.9,43,0.00,,---,0.00,VWS V13.01,2013-06-29 22:27:00,
2013-06-29 15:29:00,87.6,61.7,29.65,SSE,151,0.0,4.9,42,0.00,,---,0.00,VWS V13.01,2013-06-29 22:29:00,
2013-06-29 15:30:00,87.6,61.7,29.65,SSE,151,0.0,0.0,42,0.00,,---,0.00,VWS V13.01,2013-06-29 22:30:00,
2013-06-29 15:32:00,87.6,61.7,29.65,SSE,151,0.0,0.0,42,0.00,,---,0.00,VWS V13.01,2013-06-29 22:32:00,
2013-06-29 15:34:00,87.3,61.4,29.65,WSW,254,4.9,4.9,42,0.00,,---,0.00,VWS V13.01,2013-06-29 22:34:00,
2013-06-29 15:36:00,87.3,61.4,29.65,West,271,3.1,3.1,42,0.00,,---,0.00,VWS V13.01,2013-06-29 22:36:00,
2013-06-29 15:37:00,87.3,61.4,29.65,West,280,2.7,2.7,42,0.00,,---,0.00,VWS V13.01,2013-06-29 22:37:00,
2013-06-29 15:38:00,87.3,61.4,29.65,West,280,2.7,2.7,42,0.00,,---,0.00,VWS V13.01,2013-06-29 22:38:00,
2013-06-29 15:39:00,87.3,61.4,29.65,West,277,4.0,4.0,42,0.00,,---,0.00,VWS V13.01,2013-06-29 22:39:00,
2013-06-29 15:41:00,87.3,61.4,29.65,ESE,116,2.7,2.7,42,0.00,,---,0.00,VWS V13.01,2013-06-29 22:41:00,
2013-06-29 15:42:00,87.3,61.4,29.65,SW,219,3.6,3.6,42,0.00,,---,0.00,VWS V13.01,2013-06-29 22:42:00,
2013-06-29 15:43:00,88.0,62.0,29.65,SSW,193,4.0,5.4,42,0.00,,---,0.00,VWS V13.01,2013-06-29 22:43:00,
2013-06-29 15:44:00,88.0,62.0,29.65,SSW,204,3.6,3.6,42,0.00,,---,0.00,VWS V13.01,2013-06-29 22:44:00,
2013-06-29 15:46:00,88.0,62.0,29.65,WSW,239,3.6,3.6,42,0.00,,---,0.00,VWS V13.01,2013-06-29 22:46:00,
2013-06-29 15:47:00,87.8,61.9,29.65,West,277,5.4,5.4,42,0.00,,---,0.00,VWS V13.01,2013-06-29 22:47:00,
2013-06-29 15:48:00,87.8,61.9,29.65,WSW,239,2.7,2.7,42,0.00,,---,0.00,VWS V13.01,2013-06-29 22:48:00,
2013-06-29 15:50:00,87.8,61.9,29.65,SW,225,3.1,3.1,42,0.00,,---,0.00,VWS V13.01,2013-06-29 22:50:00,
2013-06-29 15:51:00,87.8,61.9,29.65,SW,225,3.1,3.1,42,0.00,,---,0.00,VWS V13.01,2013-06-29 22:51:00,
2013-06-29 15:52:00,87.8,61.9,29.65,SW,231,4.9,4.9,42,0.00,,---,0.00,VWS V13.01,2013-06-29 22:52:00,
2013-06-29 15:53:00,87.8,61.9,29.65,SW,231,4.9,4.9,42,0.00,,---,0.00,VWS V13.01,2013-06-29 22:53:00,
2013-06-29 15:55:00,88.2,62.9,29.65,SW,231,4.9,4.9,43,0.00,,---,0.00,VWS V13.01,2013-06-29 22:55:00,
2013-06-29 15:56:00,88.2,62.9,29.65,ESE,108,0.0,0.0,43,0.00,,---,0.00,VWS V13.01,2013-06-29 22:56:00,
2013-06-29 15:57:00,88.5,63.2,29.65,SW,234,3.1,3.1,43,0.00,,---,0.00,VWS V13.01,2013-06-29 22:57:00,
2013-06-29 15:58:00,88.7,63.3,29.65,SW,234,3.1,3.1,43,0.00,,---,0.00,VWS V13.01,2013-06-29 22:58:00,
2013-06-29 16:00:00,88.7,63.3,29.65,NE,45,3.1,3.1,43,0.00,,---,0.00,VWS V13.01,2013-06-29 23:00:00,
2013-06-29 16:01:00,87.8,61.9,29.65,NE,45,3.1,3.1,42,0.00,,---,0.00,VWS V13.01,2013-06-29 23:01:00,
2013-06-29 16:03:00,87.8,61.9,29.65,SW,220,3.1,5.4,42,0.00,,---,0.00,VWS V13.01,2013-06-29 23:03:00,
2013-06-29 16:05:00,88.2,62.9,29.62,SW,223,0.0,0.0,43,0.00,,---,0.00,VWS V13.01,2013-06-29 23:05:00,
2013-06-29 16:06:00,88.3,63.0,29.62,SW,217,2.2,2.2,43,0.00,,---,0.00,VWS V13.01,2013-06-29 23:06:00,
2013-06-29 16:08:00,88.3,63.0,29.62,South,191,2.7,4.0,43,0.00,,---,0.00,VWS V13.01,2013-06-29 23:08:00,
2013-06-29 16:11:00,88.3,62.4,29.62,West,274,2.7,4.0,42,0.00,,---,0.00,VWS V13.01,2013-06-29 23:11:00,
2013-06-29 16:13:00,88.0,62.0,29.62,WSW,256,4.0,4.0,42,0.00,,---,0.00,VWS V13.01,2013-06-29 23:13:00,
2013-06-29 16:16:00,88.0,62.0,29.62,West,270,3.1,3.1,42,0.00,,---,0.00,VWS V13.01,2013-06-29 23:16:00,
2013-06-29 16:18:00,87.1,61.2,29.62,SW,233,2.7,4.0,42,0.00,,---,0.00,VWS V13.01,2013-06-29 23:18:00,
2013-06-29 16:21:00,87.3,61.4,29.62,ESE,105,0.0,0.0,42,0.00,,---,0.00,VWS V13.01,2013-06-29 23:21:00,
2013-06-29 16:23:00,87.1,61.2,29.62,NE,39,2.2,3.1,42,0.00,,---,0.00,VWS V13.01,2013-06-29 23:23:00,
2013-06-29 16:26:00,87.1,61.2,29.62,East,101,2.7,2.7,42,0.00,,---,0.00,VWS V13.01,2013-06-29 23:26:00,
2013-06-29 16:28:00,87.4,62.2,29.62,NNE,14,0.0,2.2,43,0.00,,---,0.00,VWS V13.01,2013-06-29 23:28:00,
2013-06-29 16:31:00,87.6,62.4,29.62,ESE,110,2.7,3.1,43,0.00,,---,0.00,VWS V13.01,2013-06-29 23:31:00,
2013-06-29 16:33:00,88.2,62.9,29.62,South,190,4.0,4.0,43,0.00,,---,0.00,VWS V13.01,2013-06-29 23:33:00,
2013-06-29 16:36:00,88.2,62.2,29.62,SW,214,4.0,4.0,42,0.00,,---,0.00,VWS V13.01,2013-06-29 23:36:00,
2013-06-29 16:38:00,88.3,63.0,29.62,ESE,118,0.0,0.0,43,0.00,,---,0.00,VWS V13.01,2013-06-29 23:38:00,
2013-06-29 16:41:00,88.5,62.5,29.62,WSW,238,3.1,3.1,42,0.00,,---,0.00,VWS V13.01,2013-06-29 23:41:00,
2013-06-29 16:42:00,88.5,62.5,29.62,WSW,238,3.1,3.1,42,0.00,,---,0.00,VWS V13.01,2013-06-29 23:42:00,
2013-06-29 16:43:00,87.8,61.9,29.62,NE,44,2.2,2.2,42,0.00,,---,0.00,VWS V13.01,2013-06-29 23:43:00,
2013-06-29 16:47:00,87.6,62.4,29.62,ESE,104,0.0,0.0,43,0.00,,---,0.00,VWS V13.01,2013-06-29 23:47:00,
2013-06-29 16:48:00,87.4,62.2,29.62,ESE,104,0.0,0.0,43,0.00,,---,0.00,VWS V13.01,2013-06-29 23:48:00,
2013-06-29 16:49:00,87.4,62.2,29.62,WSW,256,3.6,3.6,43,0.00,,---,0.00,VWS V13.01,2013-06-29 23:49:00,
2013-06-29 16:52:00,87.1,61.9,29.62,South,169,2.7,3.1,43,0.00,,---,0.00,VWS V13.01,2013-06-29 23:52:00,
2013-06-29 16:53:00,87.1,61.9,29.62,WSW,254,3.1,4.0,43,0.00,,---,0.00,VWS V13.01,2013-06-29 23:53:00,
2013-06-29 16:54:00,87.1,61.9,29.62,WSW,254,3.1,4.0,43,0.00,,---,0.00,VWS V13.01,2013-06-29 23:54:00,
2013-06-29 16:57:00,87.4,62.2,29.62,East,101,2.7,2.7,43,0.00,,---,0.00,VWS V13.01,2013-06-29 23:57:00,
2013-06-29 16:58:00,87.4,62.2,29.62,NNE,30,2.2,2.7,43,0.00,,---,0.00,VWS V13.01,2013-06-29 23:58:00,
2013-06-29 16:59:00,87.4,62.2,29.62,West,266,3.6,3.6,43,0.00,,---,0.00,VWS V13.01,2013-06-29 23:59:00,
2013-06-29 17:02:00,86.7,61.6,29.62,NW,318,2.2,5.8,43,0.00,,---,0.00,VWS V13.01,2013-06-30 00:02:00,
2013-06-29 17:04:00,86.9,61.7,29.62,South,183,5.4,5.4,43,0.00,,---,0.00,VWS V13.01,2013-06-30 00:04:00,
2013-06-29 17:07:00,87.1,62.5,29.62,SW,224,2.2,2.2,44,0.00,,---,0.00,VWS V13.01,2013-06-30 00:07:00,
2013-06-29 17:09:00,87.1,61.9,29.62,SW,225,2.2,2.2,43,0.00,,---,0.00,VWS V13.01,2013-06-30 00:09:00,
2013-06-29 17:12:00,86.9,61.7,29.62,NE,45,0.0,0.0,43,0.00,,---,0.00,VWS V13.01,2013-06-30 00:12:00,
2013-06-29 17:13:00,86.9,61.7,29.62,NE,45,0.0,0.0,43,0.00,,---,0.00,VWS V13.01,2013-06-30 00:13:00,
2013-06-29 17:14:00,86.9,61.7,29.62,WNW,294,4.0,4.0,43,0.00,,---,0.00,VWS V13.01,2013-06-30 00:14:00,
2013-06-29 17:17:00,86.9,61.7,29.62,SSW,209,2.7,4.0,43,0.00,,---,0.00,VWS V13.01,2013-06-30 00:17:00,
2013-06-29 17:18:00,86.9,61.7,29.62,West,262,4.0,4.0,43,0.00,,---,0.00,VWS V13.01,2013-06-30 00:18:00,
2013-06-29 17:19:00,86.9,61.7,29.62,WSW,254,5.4,5.4,43,0.00,,---,0.00,VWS V13.01,2013-06-30 00:19:00,
2013-06-29 17:22:00,86.4,61.2,29.62,West,281,0.0,2.7,43,0.00,,---,0.00,VWS V13.01,2013-06-30 00:22:00,
2013-06-29 17:23:00,86.4,61.2,29.62,West,281,0.0,0.0,43,0.00,,---,0.00,VWS V13.01,2013-06-30 00:23:00,
2013-06-29 17:24:00,86.4,61.2,29.62,WSW,242,3.1,3.1,43,0.00,,---,0.00,VWS V13.01,2013-06-30 00:24:00,
2013-06-29 17:27:00,86.4,61.2,29.62,SSW,213,2.7,2.7,43,0.00,,---,0.00,VWS V13.01,2013-06-30 00:27:00,
2013-06-29 17:28:00,86.5,61.4,29.62,SW,232,4.0,4.0,43,0.00,,---,0.00,VWS V13.01,2013-06-30 00:28:00,
2013-06-29 17:29:00,86.5,61.4,29.62,SW,232,4.0,4.0,43,0.00,,---,0.00,VWS V13.01,2013-06-30 00:29:00,
2013-06-29 17:30:00,86.5,61.4,29.62,SW,232,4.0,4.0,43,0.00,,---,0.00,VWS V13.01,2013-06-30 00:30:00,
2013-06-29 17:33:00,86.5,61.4,29.62,SW,235,3.1,3.1,43,0.00,,---,0.00,VWS V13.01,2013-06-30 00:33:00,
2013-06-29 17:34:00,86.4,61.2,29.62,WSW,250,3.6,3.6,43,0.00,,---,0.00,VWS V13.01,2013-06-30 00:34:00,
2013-06-29 17:35:00,86.4,61.2,29.62,SW,218,4.0,4.0,43,0.00,,---,0.00,VWS V13.01,2013-06-30 00:35:00,
2013-06-29 17:38:00,86.2,61.1,29.62,WSW,243,3.6,4.0,43,0.00,,---,0.00,VWS V13.01,2013-06-30 00:38:00,
2013-06-29 17:39:00,86.2,61.1,29.62,WSW,246,6.3,6.3,43,0.00,,---,0.00,VWS V13.01,2013-06-30 00:39:00,
2013-06-29 17:40:00,86.0,60.9,29.62,WSW,245,0.0,0.0,43,0.00,,---,0.00,VWS V13.01,2013-06-30 00:40:00,
2013-06-29 17:43:00,85.8,61.4,29.62,WNW,286,4.0,5.4,44,0.00,,---,0.00,VWS V13.01,2013-06-30 00:43:00,
2013-06-29 17:44:00,85.8,61.4,29.62,SW,231,3.6,3.6,44,0.00,,---,0.00,VWS V13.01,2013-06-30 00:44:00,
2013-06-29 17:45:00,85.8,61.4,29.62,WSW,239,3.1,5.4,44,0.00,,---,0.00,VWS V13.01,2013-06-30 00:45:00,
2013-06-29 17:48:00,85.6,61.2,29.62,WSW,249,0.0,2.2,44,0.00,,---,0.00,VWS V13.01,2013-06-30 00:48:00,
2013-06-29 17:49:00,85.6,61.2,29.62,WSW,249,0.0,0.0,44,0.00,,---,0.00,VWS V13.01,2013-06-30 00:49:00,
2013-06-29 17:50:00,85.6,61.2,29.62,West,272,3.6,3.6,44,0.00,,---,0.00,VWS V13.01,2013-06-30 00:50:00,
2013-06-29 17:53:00,85.5,61.1,29.62,WSW,240,3.1,3.1,44,0.00,,---,0.00,VWS V13.01,2013-06-30 00:53:00,
2013-06-29 17:54:00,85.3,60.9,29.62,WSW,240,0.0,0.0,44,0.00,,---,0.00,VWS V13.01,2013-06-30 00:54:00,
2013-06-29 17:55:00,85.3,60.9,29.62,WSW,240,0.0,0.0,44,0.00,,---,0.00,VWS V13.01,2013-06-30 00:55:00,
2013-06-29 17:58:00,85.3,60.9,29.62,West,265,3.1,4.0,44,0.00,,---,0.00,VWS V13.01,2013-06-30 00:58:00,
2013-06-29 18:00:00,85.1,60.8,29.62,East,99,2.7,3.1,44,0.00,,---,0.00,VWS V13.01,2013-06-30 01:00:00,
2013-06-29 18:01:00,84.9,60.6,29.62,ENE,73,2.2,2.2,44,0.00,,---,0.00,VWS V13.01,2013-06-30 01:01:00,
2013-06-29 18:03:00,84.9,60.6,29.62,ENE,73,0.0,0.0,44,0.00,,---,0.00,VWS V13.01,2013-06-30 01:03:00,
2013-06-29 18:05:00,84.7,60.4,29.62,ENE,72,0.0,0.0,44,0.00,,---,0.00,VWS V13.01,2013-06-30 01:05:00,
2013-06-29 18:06:00,84.7,60.4,29.62,NE,41,0.0,0.0,44,0.00,,---,0.00,VWS V13.01,2013-06-30 01:06:00,
2013-06-29 18:08:00,84.6,60.9,29.62,SW,235,4.9,4.9,45,0.00,,---,0.00,VWS V13.01,2013-06-30 01:08:00,
2013-06-29 18:10:00,84.6,60.9,29.62,SE,128,2.2,4.9,45,0.00,,---,0.00,VWS V13.01,2013-06-30 01:10:00,
2013-06-29 18:11:00,84.4,60.7,29.62,SE,128,0.0,0.0,45,0.00,,---,0.00,VWS V13.01,2013-06-30 01:11:00,
2013-06-29 18:14:00,84.4,60.7,29.62,SW,235,3.6,3.6,45,0.00,,---,0.00,VWS V13.01,2013-06-30 01:14:00,
2013-06-29 18:15:00,84.4,60.7,29.62,South,189,4.0,4.0,45,0.00,,---,0.00,VWS V13.01,2013-06-30 01:15:00,
2013-06-29 18:16:00,84.4,60.7,29.62,SW,228,2.7,2.7,45,0.00,,---,0.00,VWS V13.01,2013-06-30 01:16:00,
2013-06-29 18:19:00,84.4,60.7,29.62,WSW,239,0.0,2.2,45,0.00,,---,0.00,VWS V13.01,2013-06-30 01:19:00,
2013-06-29 18:20:00,84.4,60.7,29.62,North,0,3.6,3.6,45,0.00,,---,0.00,VWS V13.01,2013-06-30 01:20:00,
2013-06-29 18:21:00,84.2,60.6,29.62,NNE,22,2.2,2.2,45,0.00,,---,0.00,VWS V13.01,2013-06-30 01:21:00,
2013-06-29 18:24:00,84.0,61.0,29.62,WNW,291,3.6,3.6,46,0.00,,---,0.00,VWS V13.01,2013-06-30 01:24:00,
2013-06-29 18:25:00,84.0,61.0,29.62,WSW,239,2.2,4.0,46,0.00,,---,0.00,VWS V13.01,2013-06-30 01:25:00,
2013-06-29 18:26:00,84.0,61.0,29.62,WSW,239,0.0,2.2,46,0.00,,---,0.00,VWS V13.01,2013-06-30 01:26:00,
2013-06-29 18:29:00,83.8,60.2,29.62,South,171,0.0,0.0,45,0.00,,---,0.00,VWS V13.01,2013-06-30 01:29:00,
2013-06-29 18:30:00,83.7,60.7,29.62,South,171,0.0,0.0,46,0.00,,---,0.00,VWS V13.01,2013-06-30 01:30:00,
2013-06-29 18:31:00,83.7,60.7,29.62,WSW,249,2.7,2.7,46,0.00,,---,0.00,VWS V13.01,2013-06-30 01:31:00,
2013-06-29 18:34:00,83.5,60.5,29.59,West,265,2.7,2.7,46,0.00,,---,0.00,VWS V13.01,2013-06-30 01:34:00,
2013-06-29 18:35:00,83.5,60.5,29.59,WNW,290,4.0,4.0,46,0.00,,---,0.00,VWS V13.01,2013-06-30 01:35:00,
2013-06-29 18:36:00,83.5,60.5,29.59,WNW,290,4.0,4.0,46,0.00,,---,0.00,VWS V13.01,2013-06-30 01:36:00,
2013-06-29 18:39:00,83.5,61.2,29.59,WSW,256,3.1,3.1,47,0.00,,---,0.00,VWS V13.01,2013-06-30 01:39:00,
2013-06-29 18:40:00,83.5,61.2,29.59,SW,228,2.7,2.7,47,0.00,,---,0.00,VWS V13.01,2013-06-30 01:40:00,
2013-06-29 18:41:00,83.5,61.2,29.59,SW,228,2.7,2.7,47,0.00,,---,0.00,VWS V13.01,2013-06-30 01:41:00,
2013-06-29 18:44:00,83.5,61.2,29.59,SW,229,0.0,2.2,47,0.00,,---,0.00,VWS V13.01,2013-06-30 01:44:00,
2013-06-29 18:46:00,83.3,61.0,29.59,SW,229,0.0,2.2,47,0.00,,---,0.00,VWS V13.01,2013-06-30 01:46:00,
2013-06-29 18:49:00,83.1,60.8,29.59,SW,229,0.0,0.0,47,0.00,,---,0.00,VWS V13.01,2013-06-30 01:49:00,
2013-06-29 18:51:00,83.1,60.8,29.59,SW,229,0.0,0.0,47,0.00,,---,0.00,VWS V13.01,2013-06-30 01:51:00,
2013-06-29 18:52:00,83.1,60.8,29.59,SW,229,0.0,0.0,47,0.00,,---,0.00,VWS V13.01,2013-06-30 01:52:00,
2013-06-29 18:54:00,82.9,61.2,29.59,ENE,57,2.2,2.2,48,0.00,,---,0.00,VWS V13.01,2013-06-30 01:54:00,
2013-06-29 18:56:00,82.8,60.5,29.59,SE,138,0.0,0.0,47,0.00,,---,0.00,VWS V13.01,2013-06-30 01:56:00,
2013-06-29 18:57:00,82.8,60.5,29.59,WSW,252,3.6,3.6,47,0.00,,---,0.00,VWS V13.01,2013-06-30 01:57:00,
2013-06-29 19:00:00,82.6,60.9,29.59,SW,236,2.7,4.0,48,0.00,,---,0.00,VWS V13.01,2013-06-30 02:00:00,
2013-06-29 19:01:00,82.6,60.9,29.59,SW,236,2.7,2.7,48,0.00,,---,0.00,VWS V13.01,2013-06-30 02:01:00,
2013-06-29 19:02:00,82.6,61.5,29.59,WSW,242,0.0,2.7,49,0.00,,---,0.00,VWS V13.01,2013-06-30 02:02:00,
2013-06-29 19:05:00,82.4,61.3,29.59,WSW,252,0.0,2.7,49,0.00,,---,0.00,VWS V13.01,2013-06-30 02:05:00,
2013-06-29 19:06:00,82.4,61.3,29.59,WSW,252,0.0,0.0,49,0.00,,---,0.00,VWS V13.01,2013-06-30 02:06:00,
2013-06-29 19:07:00,82.4,61.3,29.59,WSW,244,2.7,2.7,49,0.00,,---,0.00,VWS V13.01,2013-06-30 02:07:00,
2013-06-29 19:10:00,82.2,61.2,29.59,WSW,256,0.0,0.0,49,0.00,,---,0.00,VWS V13.01,2013-06-30 02:10:00,
2013-06-29 19:11:00,82.2,61.2,29.59,WSW,256,0.0,0.0,49,0.00,,---,0.00,VWS V13.01,2013-06-30 02:11:00,
2013-06-29 19:12:00,82.0,61.0,29.59,WSW,256,0.0,0.0,49,0.00,,---,0.00,VWS V13.01,2013-06-30 02:12:00,
2013-06-29 19:15:00,81.9,61.4,29.59,WSW,256,0.0,0.0,50,0.00,,---,0.00,VWS V13.01,2013-06-30 02:15:00,
2013-06-29 19:16:00,82.0,61.6,29.59,South,178,0.0,0.0,50,0.00,,---,0.00,VWS V13.01,2013-06-30 02:16:00,
2013-06-29 19:17:00,82.0,61.6,29.59,South,178,0.0,0.0,50,0.00,,---,0.00,VWS V13.01,2013-06-30 02:17:00,
2013-06-29 19:20:00,81.7,61.8,29.59,SSW,192,0.0,2.2,51,0.00,,---,0.00,VWS V13.01,2013-06-30 02:20:00,
2013-06-29 19:22:00,81.7,61.8,29.59,West,272,0.0,0.0,51,0.00,,---,0.00,VWS V13.01,2013-06-30 02:22:00,
2013-06-29 19:25:00,81.5,61.7,29.59,West,261,3.1,3.1,51,0.00,,---,0.00,VWS V13.01,2013-06-30 02:25:00,
2013-06-29 19:27:00,81.5,61.7,29.59,West,271,3.1,3.1,51,0.00,,---,0.00,VWS V13.01,2013-06-30 02:27:00,
2013-06-29 19:28:00,81.7,62.4,29.59,West,271,2.2,2.2,52,0.00,,---,0.00,VWS V13.01,2013-06-30 02:28:00,
2013-06-29 19:30:00,81.7,62.4,29.59,West,271,0.0,0.0,52,0.00,,---,0.00,VWS V13.01,2013-06-30 02:30:00,
2013-06-29 19:32:00,81.5,62.2,29.59,West,271,0.0,0.0,52,0.00,,---,0.00,VWS V13.01,2013-06-30 02:32:00,
2013-06-29 19:33:00,81.5,62.2,29.59,West,271,0.0,0.0,52,0.00,,---,0.00,VWS V13.01,2013-06-30 02:33:00,
2013-06-29 19:35:00,81.5,62.2,29.59,WSW,256,0.0,0.0,52,0.00,,---,0.00,VWS V13.01,2013-06-30 02:35:00,
2013-06-29 19:37:00,81.3,62.0,29.59,WSW,256,0.0,0.0,52,0.00,,---,0.00,VWS V13.01,2013-06-30 02:37:00,
2013-06-29 19:38:00,81.3,62.0,29.59,WSW,256,0.0,0.0,52,0.00,,---,0.00,VWS V13.01,2013-06-30 02:38:00,
2013-06-29 19:40:00,81.1,61.9,29.59,WSW,256,0.0,0.0,52,0.00,,---,0.00,VWS V13.01,2013-06-30 02:40:00,
2013-06-29 19:42:00,80.8,62.1,29.59,WSW,256,0.0,0.0,53,0.00,,---,0.00,VWS V13.01,2013-06-30 02:42:00,
2013-06-29 19:43:00,80.8,62.1,29.59,WSW,256,0.0,0.0,53,0.00,,---,0.00,VWS V13.01,2013-06-30 02:43:00,
2013-06-29 19:45:00,80.8,62.1,29.59,WNW,301,3.6,3.6,53,0.00,,---,0.00,VWS V13.01,2013-06-30 02:45:00,
2013-06-29 19:47:00,81.0,62.2,29.59,SW,225,2.7,3.6,53,0.00,,---,0.00,VWS V13.01,2013-06-30 02:47:00,
2013-06-29 19:48:00,81.0,62.2,29.59,WSW,256,3.1,4.0,53,0.00,,---,0.00,VWS V13.01,2013-06-30 02:48:00,
2013-06-29 19:50:00,81.0,61.7,29.59,WSW,245,2.7,4.0,52,0.00,,---,0.00,VWS V13.01,2013-06-30 02:50:00,
2013-06-29 19:53:00,80.8,61.5,29.59,SW,235,0.0,0.0,52,0.00,,---,0.00,VWS V13.01,2013-06-30 02:53:00,
2013-06-29 19:55:00,80.8,62.1,29.59,SW,235,0.0,0.0,53,0.00,,---,0.00,VWS V13.01,2013-06-30 02:55:00,
2013-06-29 19:58:00,80.6,61.9,29.59,SW,235,0.0,0.0,53,0.00,,---,0.00,VWS V13.01,2013-06-30 02:58:00,
2013-06-29 19:59:00,80.4,62.3,29.59,SW,235,0.0,0.0,54,0.00,,---,0.00,VWS V13.01,2013-06-30 02:59:00,
2013-06-29 20:00:00,80.4,62.3,29.59,SW,235,0.0,0.0,54,0.00,,---,0.00,VWS V13.01,2013-06-30 03:00:00,
2013-06-29 20:03:00,80.2,62.1,29.59,SW,235,0.0,0.0,54,0.00,,---,0.00,VWS V13.01,2013-06-30 03:03:00,
2013-06-29 20:04:00,80.2,62.1,29.59,SW,235,0.0,0.0,54,0.00,,---,0.00,VWS V13.01,2013-06-30 03:04:00,
2013-06-29 20:06:00,80.2,62.6,29.59,SW,235,0.0,0.0,55,0.00,,---,0.00,VWS V13.01,2013-06-30 03:06:00,
2013-06-29 20:08:00,80.1,61.9,29.59,NW,315,0.0,0.0,54,0.00,,---,0.00,VWS V13.01,2013-06-30 03:08:00,
2013-06-29 20:09:00,80.1,61.9,29.59,NW,315,0.0,0.0,54,0.00,,---,0.00,VWS V13.01,2013-06-30 03:09:00,
2013-06-29 20:11:00,79.7,62.1,29.59,NW,315,0.0,0.0,55,0.00,,---,0.00,VWS V13.01,2013-06-30 03:11:00,
2013-06-29 20:13:00,79.7,62.1,29.59,NW,315,0.0,0.0,55,0.00,,---,0.00,VWS V13.01,2013-06-30 03:13:00,
2013-06-29 20:14:00,79.7,62.1,29.59,NW,315,0.0,0.0,55,0.00,,---,0.00,VWS V13.01,2013-06-30 03:14:00,
2013-06-29 20:16:00,79.3,62.3,29.59,NW,315,0.0,0.0,56,0.00,,---,0.00,VWS V13.01,2013-06-30 03:16:00,
2013-06-29 20:18:00,79.2,62.6,29.59,NW,315,0.0,0.0,57,0.00,,---,0.00,VWS V13.01,2013-06-30 03:18:00,
2013-06-29 20:19:00,79.2,62.6,29.59,NW,315,0.0,0.0,57,0.00,,---,0.00,VWS V13.01,2013-06-30 03:19:00,
2013-06-29 20:21:00,79.0,63.0,29.59,NW,315,0.0,0.0,58,0.00,,---,0.00,VWS V13.01,2013-06-30 03:21:00,
2013-06-29 20:23:00,78.8,62.8,29.59,NW,315,0.0,0.0,58,0.00,,---,0.00,VWS V13.01,2013-06-30 03:23:00,
2013-06-29 20:24:00,78.8,63.3,29.59,NW,315,0.0,0.0,59,0.00,,---,0.00,VWS V13.01,2013-06-30 03:24:00,
2013-06-29 20:26:00,78.6,63.6,29.59,NW,315,0.0,0.0,60,0.00,,---,0.00,VWS V13.01,2013-06-30 03:26:00,
2013-06-29 20:28:00,78.6,63.6,29.59,NW,315,0.0,0.0,60,0.00,,---,0.00,VWS V13.01,2013-06-30 03:28:00,
2013-06-29 20:29:00,78.6,63.6,29.59,NW,315,0.0,0.0,60,0.00,,---,0.00,VWS V13.01,2013-06-30 03:29:00,
2013-06-29 20:31:00,78.6,64.1,29.59,NW,315,0.0,0.0,61,0.00,,---,0.00,VWS V13.01,2013-06-30 03:31:00,
2013-06-29 20:33:00,78.6,64.1,29.59,NW,309,0.0,0.0,61,0.00,,---,0.00,VWS V13.01,2013-06-30 03:33:00,
2013-06-29 20:34:00,78.6,64.1,29.59,NW,309,0.0,0.0,61,0.00,,---,0.00,VWS V13.01,2013-06-30 03:34:00,
2013-06-29 20:35:00,78.6,64.1,29.59,NW,309,0.0,0.0,61,0.00,,---,0.00,VWS V13.01,2013-06-30 03:35:00,
2013-06-29 20:36:00,78.4,64.3,29.59,NW,309,0.0,0.0,62,0.00,,---,0.00,VWS V13.01,2013-06-30 03:36:00,
2013-06-29 20:38:00,78.4,64.3,29.59,NW,309,0.0,0.0,62,0.00,,---,0.00,VWS V13.01,2013-06-30 03:38:00,
2013-06-29 20:39:00,78.4,64.3,29.59,NW,309,0.0,0.0,62,0.00,,---,0.00,VWS V13.01,2013-06-30 03:39:00,
2013-06-29 20:40:00,78.3,64.2,29.59,NW,309,0.0,0.0,62,0.00,,---,0.00,VWS V13.01,2013-06-30 03:40:00,
2013-06-29 20:41:00,78.3,64.2,29.59,NW,309,0.0,0.0,62,0.00,,---,0.00,VWS V13.01,2013-06-30 03:41:00,
2013-06-29 20:44:00,78.1,64.5,29.59,NW,309,0.0,0.0,63,0.00,,---,0.00,VWS V13.01,2013-06-30 03:44:00,
2013-06-29 20:45:00,78.1,64.5,29.59,NW,309,0.0,0.0,63,0.00,,---,0.00,VWS V13.01,2013-06-30 03:45:00,
2013-06-29 20:46:00,77.9,64.3,29.59,NW,309,0.0,0.0,63,0.00,,---,0.00,VWS V13.01,2013-06-30 03:46:00,
2013-06-29 20:49:00,77.9,64.3,29.59,NW,309,0.0,0.0,63,0.00,,---,0.00,VWS V13.01,2013-06-30 03:49:00,
2013-06-29 20:50:00,77.9,64.3,29.59,NW,309,0.0,0.0,63,0.00,,---,0.00,VWS V13.01,2013-06-30 03:50:00,
2013-06-29 20:51:00,77.9,64.3,29.59,NW,309,0.0,0.0,63,0.00,,---,0.00,VWS V13.01,2013-06-30 03:51:00,
2013-06-29 20:52:00,77.9,64.3,29.59,NW,309,0.0,0.0,63,0.00,,---,0.00,VWS V13.01,2013-06-30 03:52:00,
2013-06-29 20:54:00,77.7,64.1,29.59,NW,309,0.0,0.0,63,0.00,,---,0.00,VWS V13.01,2013-06-30 03:54:00,
2013-06-29 20:55:00,77.7,64.1,29.59,NW,309,0.0,0.0,63,0.00,,---,0.00,VWS V13.01,2013-06-30 03:55:00,
2013-06-29 20:56:00,77.7,64.1,29.59,NW,309,0.0,0.0,63,0.00,,---,0.00,VWS V13.01,2013-06-30 03:56:00,
2013-06-29 20:57:00,77.7,64.1,29.59,NW,309,0.0,0.0,63,0.00,,---,0.00,VWS V13.01,2013-06-30 03:57:00,
2013-06-29 20:59:00,77.7,64.1,29.59,NW,309,0.0,0.0,63,0.00,,---,0.00,VWS V13.01,2013-06-30 03:59:00,
2013-06-29 21:00:00,77.7,64.1,29.59,NW,309,0.0,0.0,63,0.00,,---,0.00,VWS V13.01,2013-06-30 04:00:00,
2013-06-29 21:01:00,77.7,64.1,29.59,NW,309,0.0,0.0,63,0.00,,---,0.00,VWS V13.01,2013-06-30 04:01:00,
2013-06-29 21:06:00,77.2,64.1,29.59,NW,309,0.0,0.0,64,0.00,,---,0.00,VWS V13.01,2013-06-30 04:06:00,
2013-06-29 21:11:00,77.4,64.2,29.59,NW,309,0.0,0.0,64,0.00,,---,0.00,VWS V13.01,2013-06-30 04:11:00,
2013-06-29 21:16:00,77.4,64.2,29.59,NW,309,0.0,0.0,64,0.00,,---,0.00,VWS V13.01,2013-06-30 04:16:00,
2013-06-29 21:21:00,77.0,64.3,29.62,NW,309,0.0,0.0,65,0.00,,---,0.00,VWS V13.01,2013-06-30 04:21:00,
2013-06-29 21:26:00,76.6,64.4,29.62,NW,309,0.0,0.0,66,0.00,,---,0.00,VWS V13.01,2013-06-30 04:26:00,
2013-06-29 21:31:00,76.5,64.3,29.62,NW,309,0.0,0.0,66,0.00,,---,0.00,VWS V13.01,2013-06-30 04:31:00,
2013-06-29 21:32:00,76.5,64.3,29.62,NW,309,0.0,0.0,66,0.00,,---,0.00,VWS V13.01,2013-06-30 04:32:00,
2013-06-29 21:36:00,76.1,63.9,29.62,NW,309,0.0,0.0,66,0.00,,---,0.00,VWS V13.01,2013-06-30 04:36:00,
2013-06-29 21:37:00,76.1,63.9,29.62,NW,309,0.0,0.0,66,0.00,,---,0.00,VWS V13.01,2013-06-30 04:37:00,
2013-06-29 21:41:00,75.7,64.0,29.62,NW,309,0.0,0.0,67,0.00,,---,0.00,VWS V13.01,2013-06-30 04:41:00,
2013-06-29 21:42:00,75.7,64.0,29.62,NW,309,0.0,0.0,67,0.00,,---,0.00,VWS V13.01,2013-06-30 04:42:00,
2013-06-29 21:46:00,75.6,63.8,29.62,NW,309,0.0,0.0,67,0.00,,---,0.00,VWS V13.01,2013-06-30 04:46:00,
2013-06-29 21:47:00,75.6,63.8,29.62,NW,309,0.0,0.0,67,0.00,,---,0.00,VWS V13.01,2013-06-30 04:47:00,
2013-06-29 21:52:00,75.6,63.8,29.62,NW,309,0.0,0.0,67,0.00,,---,0.00,VWS V13.01,2013-06-30 04:52:00,
2013-06-29 21:57:00,75.6,63.8,29.62,NW,309,0.0,0.0,67,0.00,,---,0.00,VWS V13.01,2013-06-30 04:57:00,
2013-06-29 22:02:00,75.4,63.7,29.62,NW,309,0.0,0.0,67,0.00,,---,0.00,VWS V13.01,2013-06-30 05:02:00,
2013-06-29 22:03:00,75.4,63.7,29.62,NW,309,0.0,0.0,67,0.00,,---,0.00,VWS V13.01,2013-06-30 05:03:00,
2013-06-29 22:07:00,75.4,63.2,29.62,North,0,0.0,0.0,66,0.00,,---,0.00,VWS V13.01,2013-06-30 05:07:00,
2013-06-29 22:08:00,75.0,63.3,29.62,North,0,0.0,0.0,67,0.00,,---,0.00,VWS V13.01,2013-06-30 05:08:00,
2013-06-29 22:12:00,74.7,63.0,29.62,NNE,24,0.0,0.0,67,0.00,,---,0.00,VWS V13.01,2013-06-30 05:12:00,
2013-06-29 22:13:00,74.7,63.0,29.62,NNE,24,0.0,0.0,67,0.00,,---,0.00,VWS V13.01,2013-06-30 05:13:00,
2013-06-29 22:17:00,74.7,63.4,29.62,NNE,24,0.0,0.0,68,0.00,,---,0.00,VWS V13.01,2013-06-30 05:17:00,
2013-06-29 22:18:00,74.7,63.4,29.62,NNE,24,0.0,0.0,68,0.00,,---,0.00,VWS V13.01,2013-06-30 05:18:00,
2013-06-29 22:22:00,74.5,62.8,29.62,NNE,24,0.0,0.0,67,0.00,,---,0.00,VWS V13.01,2013-06-30 05:22:00,
2013-06-29 22:23:00,74.5,62.8,29.62,NNE,24,0.0,0.0,67,0.00,,---,0.00,VWS V13.01,2013-06-30 05:23:00,
2013-06-29 22:24:00,74.5,62.8,29.62,NNE,24,0.0,0.0,67,0.00,,---,0.00,VWS V13.01,2013-06-30 05:24:00,
2013-06-29 22:27:00,74.5,62.8,29.62,NNE,24,0.0,0.0,67,0.00,,---,0.00,VWS V13.01,2013-06-30 05:27:00,
2013-06-29 22:28:00,74.3,62.6,29.62,NNE,24,0.0,0.0,67,0.00,,---,0.00,VWS V13.01,2013-06-30 05:28:00,
2013-06-29 22:29:00,74.3,62.6,29.62,NNE,24,0.0,0.0,67,0.00,,---,0.00,VWS V13.01,2013-06-30 05:29:00,
2013-06-29 22:32:00,74.3,62.6,29.62,NNE,24,0.0,0.0,67,0.00,,---,0.00,VWS V13.01,2013-06-30 05:32:00,
2013-06-29 22:33:00,74.3,62.6,29.62,NNE,24,0.0,0.0,67,0.00,,---,0.00,VWS V13.01,2013-06-30 05:33:00,
2013-06-29 22:34:00,74.3,62.6,29.62,NNE,24,0.0,0.0,67,0.00,,---,0.00,VWS V13.01,2013-06-30 05:34:00,
2013-06-29 22:37:00,74.1,62.5,29.62,NNE,24,0.0,0.0,67,0.00,,---,0.00,VWS V13.01,2013-06-30 05:37:00,
2013-06-29 22:38:00,73.8,62.1,29.62,NNE,24,0.0,0.0,67,0.00,,---,0.00,VWS V13.01,2013-06-30 05:38:00,
2013-06-29 22:39:00,73.8,62.1,29.62,NNE,24,0.0,0.0,67,0.00,,---,0.00,VWS V13.01,2013-06-30 05:39:00,
2013-06-29 22:43:00,73.6,62.4,29.62,NNE,24,0.0,0.0,68,0.00,,---,0.00,VWS V13.01,2013-06-30 05:43:00,
2013-06-29 22:44:00,73.6,62.4,29.62,NNE,24,0.0,0.0,68,0.00,,---,0.00,VWS V13.01,2013-06-30 05:44:00,
2013-06-29 22:48:00,73.6,62.4,29.62,NNE,24,0.0,0.0,68,0.00,,---,0.00,VWS V13.01,2013-06-30 05:48:00,
2013-06-29 22:49:00,73.6,62.4,29.62,NNE,24,0.0,0.0,68,0.00,,---,0.00,VWS V13.01,2013-06-30 05:49:00,
2013-06-29 22:53:00,73.4,62.2,29.62,NNE,24,0.0,0.0,68,0.00,,---,0.00,VWS V13.01,2013-06-30 05:53:00,
2013-06-29 22:54:00,73.2,62.0,29.62,NNE,24,0.0,0.0,68,0.00,,---,0.00,VWS V13.01,2013-06-30 05:54:00,
2013-06-29 22:55:00,73.2,62.0,29.62,NNE,24,0.0,0.0,68,0.00,,---,0.00,VWS V13.01,2013-06-30 05:55:00,
2013-06-29 22:58:00,73.2,62.0,29.62,NNE,24,0.0,0.0,68,0.00,,---,0.00,VWS V13.01,2013-06-30 05:58:00,
2013-06-29 22:59:00,73.2,62.0,29.62,NNE,24,0.0,0.0,68,0.00,,---,0.00,VWS V13.01,2013-06-30 05:59:00,
2013-06-29 23:00:00,73.2,62.0,29.62,NNE,24,0.0,0.0,68,0.00,,---,0.00,VWS V13.01,2013-06-30 06:00:00,
2013-06-29 23:03:00,73.2,62.0,29.62,NNE,24,0.0,0.0,68,0.00,,---,0.00,VWS V13.01,2013-06-30 06:03:00,
2013-06-29 23:04:00,73.2,62.0,29.62,NNE,24,0.0,0.0,68,0.00,,---,0.00,VWS V13.01,2013-06-30 06:04:00,
2013-06-29 23:05:00,72.9,61.7,29.62,NNE,24,0.0,0.0,68,0.00,,---,0.00,VWS V13.01,2013-06-30 06:05:00,
2013-06-29 23:08:00,72.7,61.5,29.62,NNE,24,0.0,0.0,68,0.00,,---,0.00,VWS V13.01,2013-06-30 06:08:00,
2013-06-29 23:09:00,72.7,61.5,29.62,NNE,24,0.0,0.0,68,0.00,,---,0.00,VWS V13.01,2013-06-30 06:09:00,
2013-06-29 23:10:00,72.7,61.5,29.62,NNE,24,0.0,0.0,68,0.00,,---,0.00,VWS V13.01,2013-06-30 06:10:00,
2013-06-29 23:13:00,72.5,61.8,29.62,NNE,24,0.0,0.0,69,0.00,,---,0.00,VWS V13.01,2013-06-30 06:13:00,
2013-06-29 23:14:00,72.5,61.8,29.62,NNE,24,0.0,0.0,69,0.00,,---,0.00,VWS V13.01,2013-06-30 06:14:00,
2013-06-29 23:15:00,72.5,61.8,29.62,NNE,24,0.0,0.0,69,0.00,,---,0.00,VWS V13.01,2013-06-30 06:15:00,
2013-06-29 23:19:00,72.3,61.6,29.62,NNE,24,0.0,0.0,69,0.00,,---,0.00,VWS V13.01,2013-06-30 06:19:00,
2013-06-29 23:20:00,72.1,61.4,29.62,NNE,24,0.0,0.0,69,0.00,,---,0.00,VWS V13.01,2013-06-30 06:20:00,
2013-06-29 23:21:00,72.1,61.4,29.62,NNE,24,0.0,0.0,69,0.00,,---,0.00,VWS V13.01,2013-06-30 06:21:00,
2013-06-29 23:24:00,72.0,61.2,29.62,NNE,24,0.0,0.0,69,0.00,,---,0.00,VWS V13.01,2013-06-30 06:24:00,
2013-06-29 23:25:00,72.0,61.2,29.62,NNE,24,0.0,0.0,69,0.00,,---,0.00,VWS V13.01,2013-06-30 06:25:00,
2013-06-29 23:26:00,72.0,61.2,29.62,NNE,24,0.0,0.0,69,0.00,,---,0.00,VWS V13.01,2013-06-30 06:26:00,
2013-06-29 23:29:00,72.0,61.2,29.62,NNE,24,0.0,0.0,69,0.00,,---,0.00,VWS V13.01,2013-06-30 06:29:00,
2013-06-29 23:30:00,72.0,61.2,29.62,NNE,24,0.0,0.0,69,0.00,,---,0.00,VWS V13.01,2013-06-30 06:30:00,
2013-06-29 23:31:00,71.8,61.1,29.62,NNE,24,0.0,0.0,69,0.00,,---,0.00,VWS V13.01,2013-06-30 06:31:00,
2013-06-29 23:34:00,71.8,61.1,29.62,NNE,24,0.0,0.0,69,0.00,,---,0.00,VWS V13.01,2013-06-30 06:34:00,
2013-06-29 23:35:00,71.8,61.1,29.62,NNE,24,0.0,0.0,69,0.00,,---,0.00,VWS V13.01,2013-06-30 06:35:00,
2013-06-29 23:36:00,71.6,61.3,29.62,NNE,24,0.0,0.0,70,0.00,,---,0.00,VWS V13.01,2013-06-30 06:36:00,
2013-06-29 23:39:00,71.4,61.1,29.62,NNE,24,0.0,0.0,70,0.00,,---,0.00,VWS V13.01,2013-06-30 06:39:00,
2013-06-29 23:40:00,71.4,61.1,29.62,NNE,24,0.0,0.0,70,0.00,,---,0.00,VWS V13.01,2013-06-30 06:40:00,
2013-06-29 23:41:00,71.4,61.1,29.62,NNE,24,0.0,0.0,70,0.00,,---,0.00,VWS V13.01,2013-06-30 06:41:00,
2013-06-29 23:44:00,71.2,61.0,29.62,NNE,24,0.0,0.0,70,0.00,,---,0.00,VWS V13.01,2013-06-30 06:44:00,
2013-06-29 23:45:00,71.2,61.0,29.62,NNE,24,0.0,0.0,70,0.00,,---,0.00,VWS V13.01,2013-06-30 06:45:00,
2013-06-29 23:46:00,71.2,61.0,29.62,NNE,24,0.0,0.0,70,0.00,,---,0.00,VWS V13.01,2013-06-30 06:46:00,
2013-06-29 23:47:00,71.2,61.0,29.62,NNE,24,0.0,0.0,70,0.00,,---,0.00,VWS V13.01,2013-06-30 06:47:00,
2013-06-29 23:49:00,71.1,60.8,29.62,NNE,24,0.0,0.0,70,0.00,,---,0.00,VWS V13.01,2013-06-30 06:49:00,
2013-06-29 23:50:00,71.1,60.8,29.62,NNE,24,0.0,0.0,70,0.00,,---,0.00,VWS V13.01,2013-06-30 06:50:00,
2013-06-29 23:51:00,70.9,61.0,29.62,NNE,24,0.0,0.0,71,0.00,,---,0.00,VWS V13.01,2013-06-30 06:51:00,
2013-06-29 23:52:00,70.9,61.0,29.62,NNE,24,0.0,0.0,71,0.00,,---,0.00,VWS V13.01,2013-06-30 06:52:00,
2013-06-29 23:55:00,70.9,61.0,29.62,NNE,24,0.0,0.0,71,0.00,,---,0.00,VWS V13.01,2013-06-30 06:55:00,
2013-06-29 23:56:00,70.9,61.0,29.62,NNE,24,0.0,0.0,71,0.00,,---,0.00,VWS V13.01,2013-06-30 06:56:00,
2013-06-29 23:57:00,70.9,61.0,29.62,NNE,24,0.0,0.0,71,0.00,,---,0.00,VWS V13.01,2013-06-30 06:57:00,